Multibeam Report for SEAW03RR


Ship Name: Roger Revelle
Chief Scientist: de Moustier, Christian
University of New Hampshire
Source Organization: University of California, Scripps Institution of Oceanography (UC/SIO)
Start Date: 2001-02-25
End Date: 2001-03-25


View ISO Metadata

Visit the full NCEI Bathymetry Viewer


Multibeam Bathymetry

Cruise Details

Project: Undefined
Instrument: Simrad EM120

Data Quality

Number of Files: 1590
Number of Records: 113196
BATHYMETRY DATA Quantity Percentage
Number of Beams 21620436 100%
Number of Good Beams 20459805 94.63%
Number of Zero Beams 1160631 5.37%
Number of Flagged Beams 0 0%
AMPLITUDE DATA Quantity Percentage
Number of Beams 21620436 100%
Number of Good Beams 20459805 94.63%
Number of Zero Beams 1160631 5.37%
Number of Flagged Beams 0 0%
SIDESCAN DATA Quantity Percentage
Number of Pixels 115912704 100%
Number of Good Pixels 115681280 99.8%
Number of Zero Pixels 0 0%
Number of Flagged Pixels 231424 0.2%

Navigation Totals

Total Time: 633.2019 hours
Total Track Length: 13399.8092 km
Average Speed: 21.162 km/hr (11.4266 knots)

Cruise Bounds

Northern Extent: 23.009037
Southern Extent: 16.796478
Western Extent: -159.6175
Eastern Extent: -149.98979

Limits

Minimum Sonar Depth 0 Maximum Sonar Depth 9.52
Minimum Altitude -6.39 Maximum Altitude 6524.8501
Minimum Depth 3.91 Maximum Depth 7978.21
Minimum Amplitude -63.5 Maximum Amplitude 59
Minimum Sidescan 0 Maximum Sidescan 124.04

File Information

Full Resolution Bathymetry as collected (raw): 794

Files File Size Description
20070727123021001_0001_20010226_024553p.mb57.gz 9.62MB Simrad multibeam processing format
20070727123022002_0001_20010226_145627p.mb57.gz 2.16MB Simrad multibeam processing format
20070727123022003_0001_20010227_163013p.mb57.gz 417.6KB Simrad multibeam processing format
20070727123022004_0001_20010227_164350p.mb57.gz 0.73MB Simrad multibeam processing format
20070727123023005_0001_20010228_093202p.mb57.gz 2.64MB Simrad multibeam processing format
20070727123023006_0001_20010228_101755p.mb57.gz 0.55MB Simrad multibeam processing format
20070727123023007_0001_20010301_004106p.mb57.gz 2.60MB Simrad multibeam processing format
20070727123024008_0001_20010301_012139p.mb57.gz 4.52MB Simrad multibeam processing format
20070727123025009_0001_20010301_152140p.mb57.gz 0.87MB Simrad multibeam processing format
20070727123025010_0001_20010301_154209p.mb57.gz 1.94MB Simrad multibeam processing format
20070727123025011_0001_20010301_160539p.mb57.gz 4.95MB Simrad multibeam processing format
20070727123027012_0001_20010302_112155p.mb57.gz 3.98MB Simrad multibeam processing format
20070727123027013_0001_20010303_021323p.mb57.gz 1.98MB Simrad multibeam processing format
20070727123028014_0001_20010303_023826p.mb57.gz 2.76MB Simrad multibeam processing format
20070727123028015_0001_20010303_065306p.mb57.gz 1.22MB Simrad multibeam processing format
20070727123029016_0001_20010303_082208p.mb57.gz 346.4KB Simrad multibeam processing format
20070727123029017_0001_20010303_110156p.mb57.gz 3.87MB Simrad multibeam processing format
20070727123029018_0001_20010303_115032p.mb57.gz 4.96MB Simrad multibeam processing format
20070727123030019_0001_20010303_143810p.mb57.gz 4.99MB Simrad multibeam processing format
20070727123030020_0001_20010303_215728p.mb57.gz 4.36MB Simrad multibeam processing format
20070727123031021_0001_20010304_070855p.mb57.gz 137.4KB Simrad multibeam processing format
20070727123031022_0001_20010304_081233p.mb57.gz 4.50MB Simrad multibeam processing format
20070727123033023_0001_20010304_135222p.mb57.gz 1.50MB Simrad multibeam processing format
20070727123033024_0001_20010304_141351p.mb57.gz 4.58MB Simrad multibeam processing format
20070727123033025_0001_20010305_135145p.mb57.gz 2.67MB Simrad multibeam processing format
20070727123034026_0001_20010305_143025p.mb57.gz 4.50MB Simrad multibeam processing format
20070727123034027_0001_20010306_123526p.mb57.gz 0.59MB Simrad multibeam processing format
20070727123035028_0001_20010306_151241p.mb57.gz 4.34MB Simrad multibeam processing format
20070727123035029_0001_20010307_020147p.mb57.gz 0.96MB Simrad multibeam processing format
20070727123035030_0001_20010307_160442p.mb57.gz 267.9KB Simrad multibeam processing format
20070727123036031_0001_20010307_162911p.mb57.gz 4.15MB Simrad multibeam processing format
20070727123037032_0001_20010308_100102p.mb57.gz 0.75MB Simrad multibeam processing format
20070727123037033_0001_20010308_103908p.mb57.gz 4.32MB Simrad multibeam processing format
20070727123038034_0001_20010309_115841p.mb57.gz 4.45MB Simrad multibeam processing format
20070727123038035_0001_20010309_142851p.mb57.gz 1.32MB Simrad multibeam processing format
20070727123038036_0001_20010310_094639p.mb57.gz 2.80MB Simrad multibeam processing format
20070727123039037_0001_20010310_102740p.mb57.gz 4.54MB Simrad multibeam processing format
20070727123039038_0001_20010311_190049p.mb57.gz 3.26MB Simrad multibeam processing format
20070727123040039_0001_20010311_194234p.mb57.gz 4.31MB Simrad multibeam processing format
20070727123040040_0001_20010312_153447p.mb57.gz 1.83MB Simrad multibeam processing format
20070727123042041_0001_20010313_001836p.mb57.gz 1.48MB Simrad multibeam processing format
20070727123043042_0001_20010313_025230p.mb57.gz 332.6KB Simrad multibeam processing format
20070727123043043_0001_20010313_055441p.mb57.gz 4.54MB Simrad multibeam processing format
20070727123043044_0001_20010313_133949p.mb57.gz 1.63MB Simrad multibeam processing format
20070727123044045_0001_20010313_142404p.mb57.gz 4.66MB Simrad multibeam processing format
20070727123044046_0001_20010313_225916p.mb57.gz 2.93MB Simrad multibeam processing format
20070727123045047_0001_20010313_234338p.mb57.gz 50.9KB Simrad multibeam processing format
20070727123046048_0001_20010313_234544p.mb57.gz 4.36MB Simrad multibeam processing format
20070727123047049_0001_20010314_081537p.mb57.gz 3.35MB Simrad multibeam processing format
20070727123047050_0001_20010314_090144p.mb57.gz 4.73MB Simrad multibeam processing format
20070727123048051_0001_20010314_190224p.mb57.gz 368.5KB Simrad multibeam processing format
20070727123048052_0001_20010315_051947p.mb57.gz 1.59MB Simrad multibeam processing format
20070727123049053_0001_20010315_061457p.mb57.gz 4.60MB Simrad multibeam processing format
20070727123049054_0001_20010315_161107p.mb57.gz 3.95MB Simrad multibeam processing format
20070727123050055_0001_20010315_170938p.mb57.gz 4.42MB Simrad multibeam processing format
20070727123050056_0001_20010316_021147p.mb57.gz 4.70MB Simrad multibeam processing format
20070727123052057_0001_20010316_043644p.mb57.gz 94.2KB Simrad multibeam processing format
20070727123052058_0001_20010316_123236p.mb57.gz 0.89MB Simrad multibeam processing format
20070727123053059_0001_20010316_124501p.mb57.gz 1.39MB Simrad multibeam processing format
20070727123053060_0001_20010316_131347p.mb57.gz 4.62MB Simrad multibeam processing format
20070727123054061_0001_20010317_021837p.mb57.gz 3.48MB Simrad multibeam processing format
20070727123054062_0001_20010317_141541p.mb57.gz 4.76MB Simrad multibeam processing format
20070727123054063_0001_20010317_215250p.mb57.gz 1.32MB Simrad multibeam processing format
20070727123055064_0001_20010317_223606p.mb57.gz 4.19MB Simrad multibeam processing format
20070727123055065_0001_20010318_063725p.mb57.gz 4.74MB Simrad multibeam processing format
20070727123056066_0001_20010318_104450p.mb57.gz 1.04MB Simrad multibeam processing format
20070727123058067_0001_20010318_112844p.mb57.gz 4.61MB Simrad multibeam processing format
20070727123058068_0001_20010318_161752p.mb57.gz 4.61MB Simrad multibeam processing format
20070727123058069_0001_20010318_210121p.mb57.gz 262.7KB Simrad multibeam processing format
20070727123059070_0001_20010319_020148p.mb57.gz 108.5KB Simrad multibeam processing format
20070727123059071_0001_20010319_061337p.mb57.gz 2.31MB Simrad multibeam processing format
20070727123059072_0001_20010319_135207p.mb57.gz 7.14MB Simrad multibeam processing format
20070727123100073_0001_20010319_221630p.mb57.gz 1.98MB Simrad multibeam processing format
20070727123102074_0001_20010319_224227p.mb57.gz 49.0KB Simrad multibeam processing format
20070727123102075_0001_20010319_224357p.mb57.gz 4.65MB Simrad multibeam processing format
20070727123103076_0001_20010320_065416p.mb57.gz 5.94MB Simrad multibeam processing format
20070727123103077_0001_20010320_144027p.mb57.gz 4.57MB Simrad multibeam processing format
20070727123104078_0001_20010320_204601p.mb57.gz 210.1KB Simrad multibeam processing format
20070727123104079_0001_20010321_024415p.mb57.gz 4.15MB Simrad multibeam processing format
20070727123105080_0001_20010321_105400p.mb57.gz 4.37MB Simrad multibeam processing format
20070727123105081_0001_20010321_190614p.mb57.gz 125.3KB Simrad multibeam processing format
20070727123106082_0001_20010321_192108p.mb57.gz 0.62MB Simrad multibeam processing format
20070727123107083_0001_20010322_030656p.mb57.gz 97.2KB Simrad multibeam processing format
20070727123107084_0001_20010322_112525p.mb57.gz 1.00MB Simrad multibeam processing format
20070727123107085_0001_20010322_192433p.mb57.gz 0.53MB Simrad multibeam processing format
20070727123108086_0001_20010323_064157p.mb57.gz 1.01MB Simrad multibeam processing format
20070727123108087_0001_20010323_121405p.mb57.gz 4.26MB Simrad multibeam processing format
20070727123110088_0001_20010324_030731p.mb57.gz 4.69MB Simrad multibeam processing format
20070727123110089_0001_20010324_194521p.mb57.gz 4.38MB Simrad multibeam processing format
20070727123110090_0001_20010324_210205p.mb57.gz 195.3KB Simrad multibeam processing format
20070727123111091_0001_20010325_004237p.mb57.gz 4.54MB Simrad multibeam processing format
20070727123112092_0001_20010325_030218p.mb57.gz 76.2KB Simrad multibeam processing format
20070727123112093_0001_20010325_061511p.mb57.gz 1.25MB Simrad multibeam processing format
20070727123113094_0001_20010325_085619p.mb57.gz 4.22MB Simrad multibeam processing format
20070727123114095_0002_20010226_034015p.mb57.gz 1.40MB Simrad multibeam processing format
20070727123114096_0002_20010226_154831p.mb57.gz 1.92MB Simrad multibeam processing format
20070727123114097_0002_20010227_163524p.mb57.gz 0.59MB Simrad multibeam processing format
20070727123114098_0002_20010227_165330p.mb57.gz 4.88MB Simrad multibeam processing format
20070727123115099_0002_20010301_011625p.mb57.gz 280.0KB Simrad multibeam processing format
20070727123115100_0002_20010301_022139p.mb57.gz 4.57MB Simrad multibeam processing format
20070727123116101_0002_20010301_170539p.mb57.gz 1.21MB Simrad multibeam processing format
20070727123117102_0002_20010302_122155p.mb57.gz 4.05MB Simrad multibeam processing format
20070727123117103_0002_20010303_031214p.mb57.gz 4.68MB Simrad multibeam processing format
20070727123118104_0002_20010303_071011p.mb57.gz 101.4KB Simrad multibeam processing format
20070727123118105_0002_20010303_082723p.mb57.gz 4.71MB Simrad multibeam processing format
20070727123119106_0002_20010303_125032p.mb57.gz 4.97MB Simrad multibeam processing format
20070727123119107_0002_20010303_153810p.mb57.gz 4.94MB Simrad multibeam processing format
20070727123120108_0002_20010303_225728p.mb57.gz 4.28MB Simrad multibeam processing format
20070727123121109_0002_20010304_071108p.mb57.gz 208.7KB Simrad multibeam processing format
20070727123122110_0002_20010304_091233p.mb57.gz 4.59MB Simrad multibeam processing format
20070727123122111_0002_20010304_151351p.mb57.gz 4.56MB Simrad multibeam processing format
20070727123123112_0002_20010305_134505p.mb57.gz 167.6KB Simrad multibeam processing format
20070727123123113_0002_20010305_153025p.mb57.gz 4.49MB Simrad multibeam processing format
20070727123123114_0002_20010306_141603p.mb57.gz 2.06MB Simrad multibeam processing format
20070727123124115_0002_20010306_161241p.mb57.gz 4.29MB Simrad multibeam processing format
20070727123125116_0002_20010307_160930p.mb57.gz 1.16MB Simrad multibeam processing format
20070727123126117_0002_20010307_172911p.mb57.gz 4.22MB Simrad multibeam processing format
20070727123127118_0002_20010308_101103p.mb57.gz 1.76MB Simrad multibeam processing format
20070727123127119_0002_20010308_113908p.mb57.gz 4.52MB Simrad multibeam processing format
20070727123128120_0002_20010309_144650p.mb57.gz 4.48MB Simrad multibeam processing format
20070727123129121_0002_20010310_112740p.mb57.gz 4.53MB Simrad multibeam processing format
20070727123130122_0002_20010311_204234p.mb57.gz 4.38MB Simrad multibeam processing format
20070727123130123_0002_20010312_160035p.mb57.gz 173.7KB Simrad multibeam processing format
20070727123130124_0002_20010312_221621p.mb57.gz 1.00MB Simrad multibeam processing format
20070727123131125_0002_20010313_003917p.mb57.gz 5.26MB Simrad multibeam processing format
20070727123132126_0002_20010313_025607p.mb57.gz 4.91MB Simrad multibeam processing format
20070727123133127_0002_20010313_065441p.mb57.gz 4.57MB Simrad multibeam processing format
20070727123134128_0002_20010313_140144p.mb57.gz 1.57MB Simrad multibeam processing format
20070727123134129_0002_20010313_152404p.mb57.gz 4.76MB Simrad multibeam processing format
20070727123134130_0002_20010314_004544p.mb57.gz 3.68MB Simrad multibeam processing format
20070727123135131_0002_20010314_100145p.mb57.gz 4.74MB Simrad multibeam processing format
20070727123135132_0002_20010314_190742p.mb57.gz 4.17MB Simrad multibeam processing format
20070727123137133_0002_20010315_054119p.mb57.gz 2.37MB Simrad multibeam processing format
20070727123138134_0002_20010315_071457p.mb57.gz 4.70MB Simrad multibeam processing format
20070727123138135_0002_20010315_180938p.mb57.gz 4.93MB Simrad multibeam processing format
20070727123139136_0002_20010316_031134p.mb57.gz 235.9KB Simrad multibeam processing format
20070727123139137_0002_20010316_043810p.mb57.gz 4.90MB Simrad multibeam processing format
20070727123139138_0002_20010316_141347p.mb57.gz 0.66MB Simrad multibeam processing format
20070727123140139_0002_20010317_030215p.mb57.gz 4.69MB Simrad multibeam processing format
20070727123141140_0002_20010317_151617p.mb57.gz 6.96MB Simrad multibeam processing format
20070727123142141_0002_20010317_221139p.mb57.gz 1.75MB Simrad multibeam processing format
20070727123142142_0002_20010317_233054p.mb57.gz 4.57MB Simrad multibeam processing format
20070727123143143_0002_20010318_073725p.mb57.gz 4.62MB Simrad multibeam processing format
20070727123143144_0002_20010318_105937p.mb57.gz 2.13MB Simrad multibeam processing format
20070727123144145_0002_20010318_122844p.mb57.gz 4.60MB Simrad multibeam processing format
20070727123145146_0002_20010318_171752p.mb57.gz 4.60MB Simrad multibeam processing format
20070727123147147_0002_20010318_210516p.mb57.gz 4.52MB Simrad multibeam processing format
20070727123148148_0002_20010319_020336p.mb57.gz 8.90MB Simrad multibeam processing format
20070727123149149_0002_20010319_064251p.mb57.gz 0.60MB Simrad multibeam processing format
20070727123150150_0002_20010319_152004p.mb57.gz 4.78MB Simrad multibeam processing format
20070727123150151_0002_20010319_234357p.mb57.gz 4.67MB Simrad multibeam processing format
20070727123151152_0002_20010320_081338p.mb57.gz 3.97MB Simrad multibeam processing format
20070727123152153_0002_20010320_154027p.mb57.gz 4.63MB Simrad multibeam processing format
20070727123153154_0002_20010320_204902p.mb57.gz 4.62MB Simrad multibeam processing format
20070727123154155_0002_20010321_034415p.mb57.gz 4.18MB Simrad multibeam processing format
20070727123154156_0002_20010321_115400p.mb57.gz 4.40MB Simrad multibeam processing format
20070727123155157_0002_20010321_190829p.mb57.gz 441.3KB Simrad multibeam processing format
20070727123155158_0002_20010321_192824p.mb57.gz 395.0KB Simrad multibeam processing format
20070727123155159_0002_20010322_030818p.mb57.gz 4.70MB Simrad multibeam processing format
20070727123156160_0002_20010322_113915p.mb57.gz 4.45MB Simrad multibeam processing format
20070727123157161_0002_20010322_193223p.mb57.gz 4.21MB Simrad multibeam processing format
20070727123158162_0002_20010323_065636p.mb57.gz 4.34MB Simrad multibeam processing format
20070727123158163_0002_20010323_131406p.mb57.gz 4.29MB Simrad multibeam processing format
20070727123159164_0002_20010324_040731p.mb57.gz 2.15MB Simrad multibeam processing format
20070727123159165_0002_20010324_204521p.mb57.gz 1.13MB Simrad multibeam processing format
20070727123159166_0002_20010324_210449p.mb57.gz 4.13MB Simrad multibeam processing format
20070727123200167_0002_20010325_014237p.mb57.gz 3.42MB Simrad multibeam processing format
20070727123202168_0002_20010325_030354p.mb57.gz 4.36MB Simrad multibeam processing format
20070727123202169_0002_20010325_063236p.mb57.gz 4.38MB Simrad multibeam processing format
20070727123203170_0002_20010325_095619p.mb57.gz 4.18MB Simrad multibeam processing format
20070727123203171_0003_20010226_163610p.mb57.gz 305.7KB Simrad multibeam processing format
20070727123204172_0003_20010227_175330p.mb57.gz 4.93MB Simrad multibeam processing format
20070727123205173_0003_20010228_102457p.mb57.gz 3.92MB Simrad multibeam processing format
20070727123205174_0003_20010301_032139p.mb57.gz 4.64MB Simrad multibeam processing format
20070727123206175_0003_20010301_172102p.mb57.gz 4.79MB Simrad multibeam processing format
20070727123207176_0003_20010302_101443p.mb57.gz 4.15MB Simrad multibeam processing format
20070727123208177_0003_20010302_132155p.mb57.gz 4.03MB Simrad multibeam processing format
20070727123208178_0003_20010303_041214p.mb57.gz 4.62MB Simrad multibeam processing format
20070727123209179_0003_20010303_071219p.mb57.gz 4.42MB Simrad multibeam processing format
20070727123210180_0003_20010303_092723p.mb57.gz 4.73MB Simrad multibeam processing format
20070727123210181_0003_20010303_135032p.mb57.gz 3.86MB Simrad multibeam processing format
20070727123211182_0003_20010303_163810p.mb57.gz 4.61MB Simrad multibeam processing format
20070727123213183_0003_20010303_235729p.mb57.gz 4.37MB Simrad multibeam processing format
20070727123214184_0003_20010304_071425p.mb57.gz 365.2KB Simrad multibeam processing format
20070727123214185_0003_20010304_101233p.mb57.gz 4.53MB Simrad multibeam processing format
20070727123215186_0003_20010304_161351p.mb57.gz 4.60MB Simrad multibeam processing format
20070727123215187_0003_20010305_163025p.mb57.gz 4.65MB Simrad multibeam processing format
20070727123216188_0003_20010306_144508p.mb57.gz 1.95MB Simrad multibeam processing format
20070727123217189_0003_20010306_171241p.mb57.gz 4.24MB Simrad multibeam processing format
20070727123217190_0003_20010307_182911p.mb57.gz 4.18MB Simrad multibeam processing format
20070727123218191_0003_20010308_123908p.mb57.gz 4.44MB Simrad multibeam processing format
20070727123219192_0003_20010309_154650p.mb57.gz 4.52MB Simrad multibeam processing format
20070727123219193_0003_20010310_122740p.mb57.gz 4.72MB Simrad multibeam processing format
20070727123220194_0003_20010311_214234p.mb57.gz 4.40MB Simrad multibeam processing format
20070727123221195_0003_20010312_160337p.mb57.gz 4.37MB Simrad multibeam processing format
20070727123222196_0003_20010312_222818p.mb57.gz 4.84MB Simrad multibeam processing format
20070727123223197_0003_20010313_013917p.mb57.gz 6.11MB Simrad multibeam processing format
20070727123223198_0003_20010313_035607p.mb57.gz 3.30MB Simrad multibeam processing format
20070727123224199_0003_20010313_075442p.mb57.gz 4.62MB Simrad multibeam processing format
20070727123225200_0003_20010313_162404p.mb57.gz 4.79MB Simrad multibeam processing format
20070727123225201_0003_20010314_013227p.mb57.gz 4.70MB Simrad multibeam processing format
20070727123227202_0003_20010314_110145p.mb57.gz 4.80MB Simrad multibeam processing format
20070727123227203_0003_20010314_200742p.mb57.gz 4.56MB Simrad multibeam processing format
20070727123228204_0003_20010315_081458p.mb57.gz 4.62MB Simrad multibeam processing format
20070727123229205_0003_20010315_190938p.mb57.gz 4.77MB Simrad multibeam processing format
20070727123230206_0003_20010316_031448p.mb57.gz 4.54MB Simrad multibeam processing format
20070727123230207_0003_20010316_053810p.mb57.gz 4.65MB Simrad multibeam processing format
20070727123232208_0003_20010316_142243p.mb57.gz 2.04MB Simrad multibeam processing format
20070727123233209_0003_20010317_040226p.mb57.gz 5.03MB Simrad multibeam processing format
20070727123234210_0003_20010317_164532p.mb57.gz 5.66MB Simrad multibeam processing format
20070727123234211_0003_20010318_003054p.mb57.gz 4.64MB Simrad multibeam processing format
20070727123235212_0003_20010318_083725p.mb57.gz 4.68MB Simrad multibeam processing format
20070727123235213_0003_20010318_132844p.mb57.gz 4.51MB Simrad multibeam processing format
20070727123237214_0003_20010318_181752p.mb57.gz 191.8KB Simrad multibeam processing format
20070727123238215_0003_20010318_220516p.mb57.gz 4.48MB Simrad multibeam processing format
20070727123238216_0003_20010319_035935p.mb57.gz 1.86MB Simrad multibeam processing format
20070727123239217_0003_20010319_065032p.mb57.gz 12.44MB Simrad multibeam processing format
20070727123239218_0003_20010319_162004p.mb57.gz 9.50MB Simrad multibeam processing format
20070727123240219_0003_20010320_004357p.mb57.gz 5.80MB Simrad multibeam processing format
20070727123243220_0003_20010320_090430p.mb57.gz 178.1KB Simrad multibeam processing format
20070727123243221_0003_20010320_164027p.mb57.gz 4.62MB Simrad multibeam processing format
20070727123244222_0003_20010320_214903p.mb57.gz 4.84MB Simrad multibeam processing format
20070727123245223_0003_20010321_044415p.mb57.gz 4.02MB Simrad multibeam processing format
20070727123245224_0003_20010321_125400p.mb57.gz 4.39MB Simrad multibeam processing format
20070727123247225_0003_20010321_193252p.mb57.gz 4.53MB Simrad multibeam processing format
20070727123247226_0003_20010322_040818p.mb57.gz 4.70MB Simrad multibeam processing format
20070727123248227_0003_20010322_123915p.mb57.gz 4.03MB Simrad multibeam processing format
20070727123248228_0003_20010322_203223p.mb57.gz 4.15MB Simrad multibeam processing format
20070727123249229_0003_20010323_075636p.mb57.gz 4.47MB Simrad multibeam processing format
20070727123250230_0003_20010323_141406p.mb57.gz 4.37MB Simrad multibeam processing format
20070727123251231_0003_20010324_043458p.mb57.gz 4.72MB Simrad multibeam processing format
20070727123252232_0003_20010324_220449p.mb57.gz 3.91MB Simrad multibeam processing format
20070727123253233_0003_20010325_022943p.mb57.gz 1.72MB Simrad multibeam processing format
20070727123254234_0003_20010325_040354p.mb57.gz 4.41MB Simrad multibeam processing format
20070727123254235_0003_20010325_073236p.mb57.gz 4.38MB Simrad multibeam processing format
20070727123255236_0003_20010325_105619p.mb57.gz 3.43MB Simrad multibeam processing format
20070727123255237_0004_20010226_041252p.mb57.gz 2.78MB Simrad multibeam processing format
20070727123256238_0004_20010226_164257p.mb57.gz 1.16MB Simrad multibeam processing format
20070727123257239_0004_20010227_185330p.mb57.gz 5.01MB Simrad multibeam processing format
20070727123258240_0004_20010228_111114p.mb57.gz 5.10MB Simrad multibeam processing format
20070727123259241_0004_20010301_042139p.mb57.gz 4.65MB Simrad multibeam processing format
20070727123259242_0004_20010301_182102p.mb57.gz 4.73MB Simrad multibeam processing format
20070727123259243_0004_20010302_111443p.mb57.gz 347.2KB Simrad multibeam processing format
20070727123300244_0004_20010302_142155p.mb57.gz 4.14MB Simrad multibeam processing format
20070727123300245_0004_20010303_051214p.mb57.gz 4.62MB Simrad multibeam processing format
20070727123302246_0004_20010303_081219p.mb57.gz 0.66MB Simrad multibeam processing format
20070727123302247_0004_20010303_102723p.mb57.gz 2.65MB Simrad multibeam processing format
20070727123303248_0004_20010303_173810p.mb57.gz 4.47MB Simrad multibeam processing format
20070727123303249_0004_20010304_005729p.mb57.gz 4.38MB Simrad multibeam processing format
20070727123304250_0004_20010304_071950p.mb57.gz 177.3KB Simrad multibeam processing format
20070727123304251_0004_20010304_111233p.mb57.gz 4.70MB Simrad multibeam processing format
20070727123304252_0004_20010304_171351p.mb57.gz 4.57MB Simrad multibeam processing format
20070727123305253_0004_20010305_173025p.mb57.gz 4.66MB Simrad multibeam processing format
20070727123307254_0004_20010306_181241p.mb57.gz 4.27MB Simrad multibeam processing format
20070727123307255_0004_20010307_192911p.mb57.gz 4.11MB Simrad multibeam processing format
20070727123308256_0004_20010308_133908p.mb57.gz 4.58MB Simrad multibeam processing format
20070727123308257_0004_20010309_164650p.mb57.gz 4.44MB Simrad multibeam processing format
20070727123309258_0004_20010310_132740p.mb57.gz 4.57MB Simrad multibeam processing format
20070727123310259_0004_20010311_224234p.mb57.gz 4.33MB Simrad multibeam processing format
20070727123311260_0004_20010312_170337p.mb57.gz 4.17MB Simrad multibeam processing format
20070727123312261_0004_20010312_232818p.mb57.gz 3.49MB Simrad multibeam processing format
20070727123313262_0004_20010313_023348p.mb57.gz 1.45MB Simrad multibeam processing format
20070727123313263_0004_20010313_044220p.mb57.gz 4.30MB Simrad multibeam processing format
20070727123314264_0004_20010313_085442p.mb57.gz 4.63MB Simrad multibeam processing format
20070727123314265_0004_20010313_172404p.mb57.gz 4.73MB Simrad multibeam processing format
20070727123315266_0004_20010314_023227p.mb57.gz 4.66MB Simrad multibeam processing format
20070727123315267_0004_20010314_120145p.mb57.gz 4.83MB Simrad multibeam processing format
20070727123317268_0004_20010314_210742p.mb57.gz 4.63MB Simrad multibeam processing format
20070727123318269_0004_20010315_091458p.mb57.gz 4.60MB Simrad multibeam processing format
20070727123318270_0004_20010315_200939p.mb57.gz 4.79MB Simrad multibeam processing format
20070727123319271_0004_20010316_041448p.mb57.gz 1.28MB Simrad multibeam processing format
20070727123319272_0004_20010316_063810p.mb57.gz 4.40MB Simrad multibeam processing format
20070727123319273_0004_20010316_145022p.mb57.gz 4.50MB Simrad multibeam processing format
20070727123320274_0004_20010317_050729p.mb57.gz 4.06MB Simrad multibeam processing format
20070727123320275_0004_20010317_175927p.mb57.gz 4.62MB Simrad multibeam processing format
20070727123322276_0004_20010318_013054p.mb57.gz 4.66MB Simrad multibeam processing format
20070727123323277_0004_20010318_093725p.mb57.gz 4.65MB Simrad multibeam processing format
20070727123323278_0004_20010318_142844p.mb57.gz 4.49MB Simrad multibeam processing format
20070727123324279_0004_20010318_182040p.mb57.gz 4.64MB Simrad multibeam processing format
20070727123324280_0004_20010318_230516p.mb57.gz 4.54MB Simrad multibeam processing format
20070727123325281_0004_20010319_042443p.mb57.gz 4.60MB Simrad multibeam processing format
20070727123326282_0004_20010319_093235p.mb57.gz 6.48MB Simrad multibeam processing format
20070727123327283_0004_20010319_181743p.mb57.gz 406.7KB Simrad multibeam processing format
20070727123328284_0004_20010320_020018p.mb57.gz 2.00MB Simrad multibeam processing format
20070727123328285_0004_20010320_090717p.mb57.gz 8.63MB Simrad multibeam processing format
20070727123329286_0004_20010320_174027p.mb57.gz 4.61MB Simrad multibeam processing format
20070727123330287_0004_20010320_224903p.mb57.gz 4.65MB Simrad multibeam processing format
20070727123331288_0004_20010321_054155p.mb57.gz 4.13MB Simrad multibeam processing format
20070727123332289_0004_20010321_135400p.mb57.gz 4.30MB Simrad multibeam processing format
20070727123332290_0004_20010321_203252p.mb57.gz 4.48MB Simrad multibeam processing format
20070727123333291_0004_20010322_050818p.mb57.gz 4.66MB Simrad multibeam processing format
20070727123334292_0004_20010322_133915p.mb57.gz 4.07MB Simrad multibeam processing format
20070727123335293_0004_20010322_213223p.mb57.gz 4.13MB Simrad multibeam processing format
20070727123335294_0004_20010323_085636p.mb57.gz 4.53MB Simrad multibeam processing format
20070727123336295_0004_20010323_151406p.mb57.gz 4.28MB Simrad multibeam processing format
20070727123337296_0004_20010324_053458p.mb57.gz 4.73MB Simrad multibeam processing format
20070727123338297_0004_20010324_230449p.mb57.gz 3.85MB Simrad multibeam processing format
20070727123339298_0004_20010325_025612p.mb57.gz 294.7KB Simrad multibeam processing format
20070727123339299_0004_20010325_050354p.mb57.gz 2.42MB Simrad multibeam processing format
20070727123339300_0004_20010325_083236p.mb57.gz 1.68MB Simrad multibeam processing format
20070727123340301_0004_20010325_114645p.mb57.gz 1.11MB Simrad multibeam processing format
20070727123340302_0005_20010226_171151p.mb57.gz 8.18MB Simrad multibeam processing format
20070727123341303_0005_20010227_195330p.mb57.gz 5.05MB Simrad multibeam processing format
20070727123342304_0005_20010228_121114p.mb57.gz 5.00MB Simrad multibeam processing format
20070727123343305_0005_20010301_052139p.mb57.gz 4.90MB Simrad multibeam processing format
20070727123343306_0005_20010301_192102p.mb57.gz 4.69MB Simrad multibeam processing format
20070727123343307_0005_20010302_152156p.mb57.gz 4.17MB Simrad multibeam processing format
20070727123344308_0005_20010303_061214p.mb57.gz 2.95MB Simrad multibeam processing format
20070727123344309_0005_20010303_183810p.mb57.gz 4.45MB Simrad multibeam processing format
20070727123345310_0005_20010304_015729p.mb57.gz 4.49MB Simrad multibeam processing format
20070727123347311_0005_20010304_072229p.mb57.gz 1.76MB Simrad multibeam processing format
20070727123348312_0005_20010304_121233p.mb57.gz 4.68MB Simrad multibeam processing format
20070727123348313_0005_20010304_181352p.mb57.gz 4.66MB Simrad multibeam processing format
20070727123348314_0005_20010305_183025p.mb57.gz 4.60MB Simrad multibeam processing format
20070727123349315_0005_20010306_191241p.mb57.gz 4.30MB Simrad multibeam processing format
20070727123350316_0005_20010307_202911p.mb57.gz 8.66MB Simrad multibeam processing format
20070727123351317_0005_20010308_143908p.mb57.gz 4.47MB Simrad multibeam processing format
20070727123352318_0005_20010309_174650p.mb57.gz 4.50MB Simrad multibeam processing format
20070727123353319_0005_20010310_142740p.mb57.gz 4.66MB Simrad multibeam processing format
20070727123354320_0005_20010311_234234p.mb57.gz 4.36MB Simrad multibeam processing format
20070727123355321_0005_20010312_180337p.mb57.gz 4.61MB Simrad multibeam processing format
20070727123355322_0005_20010313_054220p.mb57.gz 0.87MB Simrad multibeam processing format
20070727123356323_0005_20010313_095442p.mb57.gz 4.63MB Simrad multibeam processing format
20070727123357324_0005_20010313_182404p.mb57.gz 4.79MB Simrad multibeam processing format
20070727123357325_0005_20010314_033227p.mb57.gz 4.69MB Simrad multibeam processing format
20070727123358326_0005_20010314_130145p.mb57.gz 4.75MB Simrad multibeam processing format
20070727123358327_0005_20010314_220742p.mb57.gz 4.66MB Simrad multibeam processing format
20070727123359328_0005_20010315_101458p.mb57.gz 4.60MB Simrad multibeam processing format
20070727123359329_0005_20010315_210939p.mb57.gz 0.60MB Simrad multibeam processing format
20070727123400330_0005_20010316_043212p.mb57.gz 245.3KB Simrad multibeam processing format
20070727123400331_0005_20010316_073810p.mb57.gz 4.72MB Simrad multibeam processing format
20070727123400332_0005_20010316_155022p.mb57.gz 11.00MB Simrad multibeam processing format
20070727123403333_0005_20010317_060011p.mb57.gz 7.62MB Simrad multibeam processing format
20070727123403334_0005_20010317_185938p.mb57.gz 4.47MB Simrad multibeam processing format
20070727123404335_0005_20010318_023054p.mb57.gz 4.62MB Simrad multibeam processing format
20070727123404336_0005_20010318_103725p.mb57.gz 401.6KB Simrad multibeam processing format
20070727123405337_0005_20010318_152844p.mb57.gz 340.4KB Simrad multibeam processing format
20070727123405338_0005_20010318_192040p.mb57.gz 4.54MB Simrad multibeam processing format
20070727123407339_0005_20010319_000516p.mb57.gz 4.53MB Simrad multibeam processing format
20070727123408340_0005_20010319_052443p.mb57.gz 3.25MB Simrad multibeam processing format
20070727123409341_0005_20010319_105201p.mb57.gz 251.3KB Simrad multibeam processing format
20070727123410342_0005_20010319_182319p.mb57.gz 1.32MB Simrad multibeam processing format
20070727123410343_0005_20010320_022429p.mb57.gz 173.2KB Simrad multibeam processing format
20070727123411344_0005_20010320_105601p.mb57.gz 4.80MB Simrad multibeam processing format
20070727123411345_0005_20010320_184027p.mb57.gz 4.48MB Simrad multibeam processing format
20070727123412346_0005_20010320_234903p.mb57.gz 4.40MB Simrad multibeam processing format
20070727123412347_0005_20010321_064155p.mb57.gz 4.12MB Simrad multibeam processing format
20070727123414348_0005_20010321_145400p.mb57.gz 4.25MB Simrad multibeam processing format
20070727123414349_0005_20010321_213252p.mb57.gz 4.49MB Simrad multibeam processing format
20070727123415350_0005_20010322_060818p.mb57.gz 3.88MB Simrad multibeam processing format
20070727123415351_0005_20010322_143915p.mb57.gz 3.99MB Simrad multibeam processing format
20070727123417352_0005_20010322_223223p.mb57.gz 4.18MB Simrad multibeam processing format
20070727123418353_0005_20010323_095636p.mb57.gz 4.57MB Simrad multibeam processing format
20070727123418354_0005_20010323_161406p.mb57.gz 4.20MB Simrad multibeam processing format
20070727123419355_0005_20010324_063458p.mb57.gz 4.69MB Simrad multibeam processing format
20070727123419356_0005_20010325_000030p.mb57.gz 1.38MB Simrad multibeam processing format
20070727123420357_0005_20010325_053708p.mb57.gz 2.85MB Simrad multibeam processing format
20070727123420358_0005_20010325_120315p.mb57.gz 4.18MB Simrad multibeam processing format
20070727123421359_0006_20010226_052439p.mb57.gz 0.54MB Simrad multibeam processing format
20070727123422360_0006_20010226_203015p.mb57.gz 2.49MB Simrad multibeam processing format
20070727123422361_0006_20010227_205330p.mb57.gz 5.03MB Simrad multibeam processing format
20070727123423362_0006_20010228_131114p.mb57.gz 5.00MB Simrad multibeam processing format
20070727123423363_0006_20010301_062139p.mb57.gz 5.03MB Simrad multibeam processing format
20070727123424364_0006_20010301_202102p.mb57.gz 4.66MB Simrad multibeam processing format
20070727123424365_0006_20010302_162156p.mb57.gz 2.76MB Simrad multibeam processing format
20070727123425366_0006_20010303_193810p.mb57.gz 4.46MB Simrad multibeam processing format
20070727123426367_0006_20010304_025729p.mb57.gz 4.53MB Simrad multibeam processing format
20070727123427368_0006_20010304_074702p.mb57.gz 73.0KB Simrad multibeam processing format
20070727123428369_0006_20010304_131233p.mb57.gz 2.87MB Simrad multibeam processing format
20070727123428370_0006_20010304_191352p.mb57.gz 4.64MB Simrad multibeam processing format
20070727123428371_0006_20010305_193025p.mb57.gz 4.64MB Simrad multibeam processing format
20070727123429372_0006_20010306_201241p.mb57.gz 4.32MB Simrad multibeam processing format
20070727123430373_0006_20010307_222900p.mb57.gz 4.58MB Simrad multibeam processing format
20070727123430374_0006_20010308_153909p.mb57.gz 4.63MB Simrad multibeam processing format
20070727123432375_0006_20010309_184650p.mb57.gz 4.36MB Simrad multibeam processing format
20070727123432376_0006_20010310_152740p.mb57.gz 4.69MB Simrad multibeam processing format
20070727123433377_0006_20010312_004234p.mb57.gz 4.43MB Simrad multibeam processing format
20070727123434378_0006_20010312_190337p.mb57.gz 4.84MB Simrad multibeam processing format
20070727123434379_0006_20010313_105442p.mb57.gz 4.66MB Simrad multibeam processing format
20070727123435380_0006_20010313_192404p.mb57.gz 4.79MB Simrad multibeam processing format
20070727123435381_0006_20010314_043227p.mb57.gz 4.75MB Simrad multibeam processing format
20070727123437382_0006_20010314_140145p.mb57.gz 3.40MB Simrad multibeam processing format
20070727123438383_0006_20010314_230742p.mb57.gz 4.58MB Simrad multibeam processing format
20070727123439384_0006_20010315_111458p.mb57.gz 4.63MB Simrad multibeam processing format
20070727123439385_0006_20010315_211712p.mb57.gz 4.82MB Simrad multibeam processing format
20070727123439386_0006_20010316_083810p.mb57.gz 4.71MB Simrad multibeam processing format
20070727123440387_0006_20010316_182258p.mb57.gz 0.91MB Simrad multibeam processing format
20070727123440388_0006_20010317_074609p.mb57.gz 1.00MB Simrad multibeam processing format
20070727123441389_0006_20010317_195833p.mb57.gz 4.72MB Simrad multibeam processing format
20070727123442390_0006_20010318_033055p.mb57.gz 1.99MB Simrad multibeam processing format
20070727123443391_0006_20010318_153321p.mb57.gz 3.12MB Simrad multibeam processing format
20070727123443392_0006_20010318_201924p.mb57.gz 363.1KB Simrad multibeam processing format
20070727123443393_0006_20010319_010516p.mb57.gz 0.71MB Simrad multibeam processing format
20070727123444394_0006_20010319_060714p.mb57.gz 208.8KB Simrad multibeam processing format
20070727123444395_0006_20010319_105547p.mb57.gz 4.59MB Simrad multibeam processing format
20070727123445396_0006_20010319_184024p.mb57.gz 405.1KB Simrad multibeam processing format
20070727123445397_0006_20010320_022644p.mb57.gz 1.00MB Simrad multibeam processing format
20070727123446398_0006_20010320_115601p.mb57.gz 296.5KB Simrad multibeam processing format
20070727123446399_0006_20010320_194027p.mb57.gz 1.55MB Simrad multibeam processing format
20070727123447400_0006_20010321_004903p.mb57.gz 2.30MB Simrad multibeam processing format
20070727123447401_0006_20010321_074155p.mb57.gz 0.70MB Simrad multibeam processing format
20070727123448402_0006_20010321_155400p.mb57.gz 4.24MB Simrad multibeam processing format
20070727123448403_0006_20010321_223252p.mb57.gz 4.52MB Simrad multibeam processing format
20070727123448404_0006_20010322_070014p.mb57.gz 4.58MB Simrad multibeam processing format
20070727123449405_0006_20010322_153915p.mb57.gz 3.98MB Simrad multibeam processing format
20070727123450406_0006_20010322_233223p.mb57.gz 2.36MB Simrad multibeam processing format
20070727123451407_0006_20010323_105636p.mb57.gz 2.50MB Simrad multibeam processing format
20070727123452408_0006_20010323_171406p.mb57.gz 3.39MB Simrad multibeam processing format
20070727123452409_0006_20010324_073458p.mb57.gz 4.78MB Simrad multibeam processing format
20070727123453410_0006_20010325_001940p.mb57.gz 1.64MB Simrad multibeam processing format
20070727123454411_0006_20010325_130315p.mb57.gz 1.05MB Simrad multibeam processing format
20070727123454412_0007_20010226_053905p.mb57.gz 4.41MB Simrad multibeam processing format
20070727123454413_0007_20010226_213015p.mb57.gz 2.64MB Simrad multibeam processing format
20070727123455414_0007_20010227_215330p.mb57.gz 5.05MB Simrad multibeam processing format
20070727123455415_0007_20010228_141114p.mb57.gz 4.96MB Simrad multibeam processing format
20070727123457416_0007_20010301_072139p.mb57.gz 5.04MB Simrad multibeam processing format
20070727123458417_0007_20010301_212102p.mb57.gz 4.68MB Simrad multibeam processing format
20070727123459418_0007_20010302_170200p.mb57.gz 4.12MB Simrad multibeam processing format
20070727123459419_0007_20010303_203810p.mb57.gz 4.39MB Simrad multibeam processing format
20070727123500420_0007_20010304_035729p.mb57.gz 4.46MB Simrad multibeam processing format
20070727123500421_0007_20010304_074825p.mb57.gz 126.4KB Simrad multibeam processing format
20070727123500422_0007_20010304_201352p.mb57.gz 4.61MB Simrad multibeam processing format
20070727123501423_0007_20010305_203025p.mb57.gz 2.02MB Simrad multibeam processing format
20070727123502424_0007_20010306_211242p.mb57.gz 4.38MB Simrad multibeam processing format
20070727123503425_0007_20010307_232900p.mb57.gz 4.58MB Simrad multibeam processing format
20070727123503426_0007_20010308_163909p.mb57.gz 4.20MB Simrad multibeam processing format
20070727123504427_0007_20010309_194651p.mb57.gz 4.43MB Simrad multibeam processing format
20070727123504428_0007_20010310_162740p.mb57.gz 4.66MB Simrad multibeam processing format
20070727123505429_0007_20010312_014234p.mb57.gz 4.31MB Simrad multibeam processing format
20070727123506430_0007_20010312_200337p.mb57.gz 5.04MB Simrad multibeam processing format
20070727123507431_0007_20010313_115442p.mb57.gz 4.63MB Simrad multibeam processing format
20070727123508432_0007_20010313_202404p.mb57.gz 4.79MB Simrad multibeam processing format
20070727123508433_0007_20010314_053227p.mb57.gz 4.73MB Simrad multibeam processing format
20070727123509434_0007_20010315_000742p.mb57.gz 4.66MB Simrad multibeam processing format
20070727123510435_0007_20010315_121458p.mb57.gz 4.66MB Simrad multibeam processing format
20070727123511436_0007_20010315_221712p.mb57.gz 4.79MB Simrad multibeam processing format
20070727123512437_0007_20010316_093811p.mb57.gz 4.57MB Simrad multibeam processing format
20070727123513438_0007_20010316_183539p.mb57.gz 4.95MB Simrad multibeam processing format
20070727123513439_0007_20010317_080002p.mb57.gz 6.16MB Simrad multibeam processing format
20070727123514440_0007_20010317_210130p.mb57.gz 448.5KB Simrad multibeam processing format
20070727123514441_0007_20010318_035712p.mb57.gz 4.62MB Simrad multibeam processing format
20070727123515442_0007_20010318_202434p.mb57.gz 2.62MB Simrad multibeam processing format
20070727123515443_0007_20010319_011451p.mb57.gz 3.33MB Simrad multibeam processing format
20070727123516444_0007_20010319_115612p.mb57.gz 1.58MB Simrad multibeam processing format
20070727123518445_0007_20010319_184520p.mb57.gz 5.38MB Simrad multibeam processing format
20070727123518446_0007_20010320_135014p.mb57.gz 449.2KB Simrad multibeam processing format
20070727123518447_0007_20010320_200128p.mb57.gz 471.2KB Simrad multibeam processing format
20070727123519448_0007_20010321_012101p.mb57.gz 2.95MB Simrad multibeam processing format
20070727123519449_0007_20010321_084247p.mb57.gz 4.37MB Simrad multibeam processing format
20070727123520450_0007_20010321_165401p.mb57.gz 0.95MB Simrad multibeam processing format
20070727123520451_0007_20010321_233253p.mb57.gz 4.31MB Simrad multibeam processing format
20070727123520452_0007_20010322_080015p.mb57.gz 4.72MB Simrad multibeam processing format
20070727123522453_0007_20010322_163915p.mb57.gz 4.09MB Simrad multibeam processing format
20070727123523454_0007_20010323_000621p.mb57.gz 4.24MB Simrad multibeam processing format
20070727123523455_0007_20010323_112924p.mb57.gz 0.94MB Simrad multibeam processing format
20070727123524456_0007_20010323_180350p.mb57.gz 4.13MB Simrad multibeam processing format
20070727123524457_0007_20010324_083458p.mb57.gz 4.76MB Simrad multibeam processing format
20070727123525458_0007_20010325_131849p.mb57.gz 4.08MB Simrad multibeam processing format
20070727123525459_0008_20010226_072808p.mb57.gz 0.62MB Simrad multibeam processing format
20070727123526460_0008_20010226_223015p.mb57.gz 2.66MB Simrad multibeam processing format
20070727123527461_0008_20010227_225330p.mb57.gz 5.11MB Simrad multibeam processing format
20070727123527462_0008_20010228_151114p.mb57.gz 4.96MB Simrad multibeam processing format
20070727123528463_0008_20010301_082139p.mb57.gz 4.99MB Simrad multibeam processing format
20070727123528464_0008_20010301_222102p.mb57.gz 4.66MB Simrad multibeam processing format
20070727123529465_0008_20010302_180200p.mb57.gz 4.64MB Simrad multibeam processing format
20070727123530466_0008_20010303_213810p.mb57.gz 108.5KB Simrad multibeam processing format
20070727123530467_0008_20010304_045729p.mb57.gz 4.56MB Simrad multibeam processing format
20070727123531468_0008_20010304_211352p.mb57.gz 4.67MB Simrad multibeam processing format
20070727123532469_0008_20010305_205635p.mb57.gz 4.75MB Simrad multibeam processing format
20070727123533470_0008_20010306_221242p.mb57.gz 4.41MB Simrad multibeam processing format
20070727123534471_0008_20010308_002900p.mb57.gz 4.62MB Simrad multibeam processing format
20070727123534472_0008_20010308_173508p.mb57.gz 141.7KB Simrad multibeam processing format
20070727123534473_0008_20010309_204651p.mb57.gz 4.45MB Simrad multibeam processing format
20070727123535474_0008_20010310_172740p.mb57.gz 4.63MB Simrad multibeam processing format
20070727123535475_0008_20010312_024234p.mb57.gz 4.37MB Simrad multibeam processing format
20070727123538476_0008_20010312_210338p.mb57.gz 5.01MB Simrad multibeam processing format
20070727123538477_0008_20010313_125442p.mb57.gz 3.39MB Simrad multibeam processing format
20070727123539478_0008_20010313_212404p.mb57.gz 4.56MB Simrad multibeam processing format
20070727123539479_0008_20010314_063227p.mb57.gz 4.65MB Simrad multibeam processing format
20070727123540480_0008_20010314_144536p.mb57.gz 1.04MB Simrad multibeam processing format
20070727123540481_0008_20010315_010742p.mb57.gz 462.5KB Simrad multibeam processing format
20070727123540482_0008_20010315_131458p.mb57.gz 4.74MB Simrad multibeam processing format
20070727123541483_0008_20010315_231712p.mb57.gz 4.68MB Simrad multibeam processing format
20070727123542484_0008_20010316_103811p.mb57.gz 4.51MB Simrad multibeam processing format
20070727123543485_0008_20010316_193713p.mb57.gz 0.73MB Simrad multibeam processing format
20070727123543486_0008_20010317_092127p.mb57.gz 443.8KB Simrad multibeam processing format
20070727123543487_0008_20010317_210733p.mb57.gz 3.35MB Simrad multibeam processing format
20070727123544488_0008_20010318_045713p.mb57.gz 4.13MB Simrad multibeam processing format
20070727123544489_0008_20010319_121716p.mb57.gz 412.8KB Simrad multibeam processing format
20070727123545490_0008_20010319_194848p.mb57.gz 1.85MB Simrad multibeam processing format
20070727123545491_0008_20010320_023940p.mb57.gz 87.6KB Simrad multibeam processing format
20070727123546492_0008_20010320_135609p.mb57.gz 3.41MB Simrad multibeam processing format
20070727123547493_0008_20010320_200713p.mb57.gz 2.23MB Simrad multibeam processing format
20070727123547494_0008_20010321_020108p.mb57.gz 3.06MB Simrad multibeam processing format
20070727123548495_0008_20010321_094247p.mb57.gz 1.73MB Simrad multibeam processing format
20070727123548496_0008_20010321_170747p.mb57.gz 4.19MB Simrad multibeam processing format
20070727123548497_0008_20010322_003253p.mb57.gz 3.85MB Simrad multibeam processing format
20070727123549498_0008_20010322_090015p.mb57.gz 4.58MB Simrad multibeam processing format
20070727123550499_0008_20010322_173915p.mb57.gz 3.99MB Simrad multibeam processing format
20070727123552500_0008_20010323_010621p.mb57.gz 4.25MB Simrad multibeam processing format
20070727123552501_0008_20010323_114122p.mb57.gz 2.49MB Simrad multibeam processing format
20070727123553502_0008_20010323_190350p.mb57.gz 4.04MB Simrad multibeam processing format
20070727123553503_0008_20010324_093458p.mb57.gz 4.74MB Simrad multibeam processing format
20070727123554504_0008_20010325_141849p.mb57.gz 3.90MB Simrad multibeam processing format
20070727123555505_0009_20010226_074131p.mb57.gz 1.80MB Simrad multibeam processing format
20070727123555506_0009_20010226_233015p.mb57.gz 2.68MB Simrad multibeam processing format
20070727123556507_0009_20010227_235330p.mb57.gz 5.14MB Simrad multibeam processing format
20070727123557508_0009_20010228_161114p.mb57.gz 4.94MB Simrad multibeam processing format
20070727123558509_0009_20010301_092139p.mb57.gz 5.02MB Simrad multibeam processing format
20070727123559510_0009_20010301_232102p.mb57.gz 4.68MB Simrad multibeam processing format
20070727123559511_0009_20010302_190200p.mb57.gz 4.73MB Simrad multibeam processing format
20070727123600512_0009_20010303_214003p.mb57.gz 1.11MB Simrad multibeam processing format
20070727123600513_0009_20010304_055729p.mb57.gz 4.51MB Simrad multibeam processing format
20070727123601514_0009_20010304_075619p.mb57.gz 1.11MB Simrad multibeam processing format
20070727123602515_0009_20010304_221352p.mb57.gz 4.78MB Simrad multibeam processing format
20070727123603516_0009_20010305_215635p.mb57.gz 4.73MB Simrad multibeam processing format
20070727123603517_0009_20010306_231242p.mb57.gz 4.31MB Simrad multibeam processing format
20070727123604518_0009_20010308_012901p.mb57.gz 4.60MB Simrad multibeam processing format
20070727123604519_0009_20010308_173734p.mb57.gz 4.54MB Simrad multibeam processing format
20070727123605520_0009_20010309_214651p.mb57.gz 3.30MB Simrad multibeam processing format
20070727123605521_0009_20010310_182740p.mb57.gz 4.64MB Simrad multibeam processing format
20070727123607522_0009_20010312_034234p.mb57.gz 4.42MB Simrad multibeam processing format
20070727123608523_0009_20010312_220338p.mb57.gz 0.89MB Simrad multibeam processing format
20070727123608524_0009_20010313_222404p.mb57.gz 2.47MB Simrad multibeam processing format
20070727123608525_0009_20010314_073227p.mb57.gz 3.27MB Simrad multibeam processing format
20070727123609526_0009_20010314_145921p.mb57.gz 4.68MB Simrad multibeam processing format
20070727123610527_0009_20010315_011403p.mb57.gz 4.69MB Simrad multibeam processing format
20070727123612528_0009_20010315_141458p.mb57.gz 4.49MB Simrad multibeam processing format
20070727123612529_0009_20010316_001712p.mb57.gz 4.69MB Simrad multibeam processing format
20070727123613530_0009_20010316_113811p.mb57.gz 4.25MB Simrad multibeam processing format
20070727123614531_0009_20010316_194746p.mb57.gz 10.63MB Simrad multibeam processing format
20070727123615532_0009_20010317_092751p.mb57.gz 3.11MB Simrad multibeam processing format
20070727123615533_0009_20010318_055121p.mb57.gz 3.31MB Simrad multibeam processing format
20070727123618534_0009_20010319_122244p.mb57.gz 4.79MB Simrad multibeam processing format
20070727123619535_0009_20010319_201139p.mb57.gz 261.8KB Simrad multibeam processing format
20070727123619536_0009_20010320_024113p.mb57.gz 1.98MB Simrad multibeam processing format
20070727123620537_0009_20010320_203718p.mb57.gz 0.54MB Simrad multibeam processing format
20070727123620538_0009_20010321_100733p.mb57.gz 3.07MB Simrad multibeam processing format
20070727123620539_0009_20010321_180747p.mb57.gz 1.37MB Simrad multibeam processing format
20070727123621540_0009_20010322_012651p.mb57.gz 4.10MB Simrad multibeam processing format
20070727123622541_0009_20010322_100015p.mb57.gz 3.00MB Simrad multibeam processing format
20070727123622542_0009_20010322_183915p.mb57.gz 0.60MB Simrad multibeam processing format
20070727123623543_0009_20010323_020621p.mb57.gz 4.23MB Simrad multibeam processing format
20070727123623544_0009_20010323_200350p.mb57.gz 4.00MB Simrad multibeam processing format
20070727123624545_0009_20010324_103458p.mb57.gz 4.85MB Simrad multibeam processing format
20070727123624546_0009_20010325_151850p.mb57.gz 4.39MB Simrad multibeam processing format
20070727123625547_0010_20010226_082708p.mb57.gz 2.32MB Simrad multibeam processing format
20070727123625548_0010_20010227_003015p.mb57.gz 2.67MB Simrad multibeam processing format
20070727123627549_0010_20010228_005330p.mb57.gz 5.08MB Simrad multibeam processing format
20070727123628550_0010_20010228_171114p.mb57.gz 4.87MB Simrad multibeam processing format
20070727123628551_0010_20010301_102139p.mb57.gz 1.01MB Simrad multibeam processing format
20070727123628552_0010_20010302_002102p.mb57.gz 4.65MB Simrad multibeam processing format
20070727123629553_0010_20010302_200200p.mb57.gz 4.70MB Simrad multibeam processing format
20070727123629554_0010_20010304_065729p.mb57.gz 0.77MB Simrad multibeam processing format
20070727123630555_0010_20010304_231352p.mb57.gz 4.75MB Simrad multibeam processing format
20070727123631556_0010_20010305_225635p.mb57.gz 4.77MB Simrad multibeam processing format
20070727123632557_0010_20010307_001242p.mb57.gz 4.34MB Simrad multibeam processing format
20070727123633558_0010_20010308_022901p.mb57.gz 4.64MB Simrad multibeam processing format
20070727123633559_0010_20010308_183734p.mb57.gz 4.57MB Simrad multibeam processing format
20070727123634560_0010_20010309_223044p.mb57.gz 4.48MB Simrad multibeam processing format
20070727123635561_0010_20010310_192740p.mb57.gz 3.12MB Simrad multibeam processing format
20070727123636562_0010_20010312_044234p.mb57.gz 190.6KB Simrad multibeam processing format
20070727123636563_0010_20010314_155921p.mb57.gz 4.64MB Simrad multibeam processing format
20070727123637564_0010_20010315_021404p.mb57.gz 4.61MB Simrad multibeam processing format
20070727123638565_0010_20010315_151306p.mb57.gz 4.24MB Simrad multibeam processing format
20070727123639566_0010_20010316_011712p.mb57.gz 4.14MB Simrad multibeam processing format
20070727123640567_0010_20010316_222817p.mb57.gz 7.95MB Simrad multibeam processing format
20070727123640568_0010_20010317_101156p.mb57.gz 5.37MB Simrad multibeam processing format
20070727123641569_0010_20010319_131935p.mb57.gz 2.37MB Simrad multibeam processing format
20070727123642570_0010_20010319_201505p.mb57.gz 6.53MB Simrad multibeam processing format
20070727123643571_0010_20010320_030342p.mb57.gz 193.5KB Simrad multibeam processing format
20070727123644572_0010_20010321_105129p.mb57.gz 110.0KB Simrad multibeam processing format
20070727123644573_0010_20010321_182559p.mb57.gz 153.1KB Simrad multibeam processing format
20070727123644574_0010_20010322_022050p.mb57.gz 3.47MB Simrad multibeam processing format
20070727123644575_0010_20010322_103906p.mb57.gz 3.36MB Simrad multibeam processing format
20070727123645576_0010_20010322_184907p.mb57.gz 242.6KB Simrad multibeam processing format
20070727123645577_0010_20010323_030621p.mb57.gz 4.30MB Simrad multibeam processing format
20070727123647578_0010_20010323_210350p.mb57.gz 4.01MB Simrad multibeam processing format
20070727123647579_0010_20010324_113458p.mb57.gz 4.67MB Simrad multibeam processing format
20070727123648580_0010_20010325_161850p.mb57.gz 4.34MB Simrad multibeam processing format
20070727123648581_0011_20010226_092708p.mb57.gz 1.75MB Simrad multibeam processing format
20070727123649582_0011_20010227_013015p.mb57.gz 2.69MB Simrad multibeam processing format
20070727123649583_0011_20010228_015330p.mb57.gz 5.10MB Simrad multibeam processing format
20070727123649584_0011_20010228_181114p.mb57.gz 4.87MB Simrad multibeam processing format
20070727123650585_0011_20010301_103430p.mb57.gz 5.17MB Simrad multibeam processing format
20070727123653586_0011_20010302_012102p.mb57.gz 4.69MB Simrad multibeam processing format
20070727123653587_0011_20010302_210200p.mb57.gz 4.89MB Simrad multibeam processing format
20070727123654588_0011_20010305_001352p.mb57.gz 4.77MB Simrad multibeam processing format
20070727123655589_0011_20010305_235635p.mb57.gz 4.72MB Simrad multibeam processing format
20070727123656590_0011_20010307_011242p.mb57.gz 1.78MB Simrad multibeam processing format
20070727123657591_0011_20010308_032901p.mb57.gz 4.66MB Simrad multibeam processing format
20070727123658592_0011_20010308_193735p.mb57.gz 4.50MB Simrad multibeam processing format
20070727123659593_0011_20010309_233044p.mb57.gz 4.50MB Simrad multibeam processing format
20070727123659594_0011_20010310_200905p.mb57.gz 4.78MB Simrad multibeam processing format
20070727123700595_0011_20010312_044556p.mb57.gz 4.42MB Simrad multibeam processing format
20070727123700596_0011_20010314_165921p.mb57.gz 3.91MB Simrad multibeam processing format
20070727123701597_0011_20010315_031404p.mb57.gz 2.14MB Simrad multibeam processing format
20070727123701598_0011_20010317_112456p.mb57.gz 8.61MB Simrad multibeam processing format
20070727123703599_0011_20010319_214004p.mb57.gz 2.25MB Simrad multibeam processing format
20070727123703600_0011_20010320_030604p.mb57.gz 1.04MB Simrad multibeam processing format
20070727123704601_0011_20010321_182817p.mb57.gz 2.89MB Simrad multibeam processing format
20070727123704602_0011_20010322_112327p.mb57.gz 42.4KB Simrad multibeam processing format
20070727123705603_0011_20010322_185252p.mb57.gz 1.14MB Simrad multibeam processing format
20070727123705604_0011_20010323_040621p.mb57.gz 4.35MB Simrad multibeam processing format
20070727123705605_0011_20010323_220351p.mb57.gz 4.01MB Simrad multibeam processing format
20070727123707606_0011_20010324_123458p.mb57.gz 4.53MB Simrad multibeam processing format
20070727123708607_0011_20010325_164708p.mb57.gz 1.64MB Simrad multibeam processing format
20070727123708608_0012_20010226_100916p.mb57.gz 2.91MB Simrad multibeam processing format
20070727123708609_0012_20010227_023015p.mb57.gz 2.64MB Simrad multibeam processing format
20070727123709610_0012_20010228_025331p.mb57.gz 5.04MB Simrad multibeam processing format
20070727123709611_0012_20010228_191115p.mb57.gz 4.83MB Simrad multibeam processing format
20070727123710612_0012_20010301_113430p.mb57.gz 5.16MB Simrad multibeam processing format
20070727123712613_0012_20010302_022103p.mb57.gz 4.66MB Simrad multibeam processing format
20070727123713614_0012_20010302_220200p.mb57.gz 4.86MB Simrad multibeam processing format
20070727123713615_0012_20010305_011352p.mb57.gz 4.75MB Simrad multibeam processing format
20070727123714616_0012_20010306_005635p.mb57.gz 4.62MB Simrad multibeam processing format
20070727123715617_0012_20010308_042901p.mb57.gz 2.96MB Simrad multibeam processing format
20070727123716618_0012_20010308_203735p.mb57.gz 4.54MB Simrad multibeam processing format
20070727123717619_0012_20010310_003044p.mb57.gz 6.90MB Simrad multibeam processing format
20070727123718620_0012_20010310_210905p.mb57.gz 4.63MB Simrad multibeam processing format
20070727123719621_0012_20010312_054556p.mb57.gz 4.38MB Simrad multibeam processing format
20070727123720622_0012_20010314_175921p.mb57.gz 1.72MB Simrad multibeam processing format
20070727123720623_0012_20010315_034216p.mb57.gz 0.66MB Simrad multibeam processing format
20070727123720624_0012_20010317_131621p.mb57.gz 0.51MB Simrad multibeam processing format
20070727123721625_0012_20010320_031920p.mb57.gz 8.40MB Simrad multibeam processing format
20070727123723626_0012_20010322_190929p.mb57.gz 0.99MB Simrad multibeam processing format
20070727123723627_0012_20010323_050622p.mb57.gz 4.31MB Simrad multibeam processing format
20070727123724628_0012_20010323_230351p.mb57.gz 0.81MB Simrad multibeam processing format
20070727123724629_0012_20010324_133459p.mb57.gz 4.58MB Simrad multibeam processing format
20070727123725630_0012_20010325_165736p.mb57.gz 11.63MB Simrad multibeam processing format
20070727123725631_0013_20010226_111124p.mb57.gz 4.77MB Simrad multibeam processing format
20070727123726632_0013_20010227_033016p.mb57.gz 1.29MB Simrad multibeam processing format
20070727123727633_0013_20010228_035331p.mb57.gz 5.07MB Simrad multibeam processing format
20070727123728634_0013_20010228_201115p.mb57.gz 4.74MB Simrad multibeam processing format
20070727123728635_0013_20010301_123430p.mb57.gz 5.14MB Simrad multibeam processing format
20070727123729636_0013_20010302_032103p.mb57.gz 4.59MB Simrad multibeam processing format
20070727123729637_0013_20010302_230200p.mb57.gz 4.87MB Simrad multibeam processing format
20070727123730638_0013_20010305_021352p.mb57.gz 4.87MB Simrad multibeam processing format
20070727123732639_0013_20010306_015635p.mb57.gz 4.61MB Simrad multibeam processing format
20070727123733640_0013_20010307_021706p.mb57.gz 4.28MB Simrad multibeam processing format
20070727123733641_0013_20010308_050734p.mb57.gz 4.64MB Simrad multibeam processing format
20070727123734642_0013_20010308_213735p.mb57.gz 4.57MB Simrad multibeam processing format
20070727123734643_0013_20010310_020430p.mb57.gz 4.41MB Simrad multibeam processing format
20070727123735644_0013_20010310_220905p.mb57.gz 4.63MB Simrad multibeam processing format
20070727123736645_0013_20010312_064557p.mb57.gz 4.44MB Simrad multibeam processing format
20070727123737646_0013_20010314_182341p.mb57.gz 2.41MB Simrad multibeam processing format
20070727123738647_0013_20010317_132248p.mb57.gz 3.23MB Simrad multibeam processing format
20070727123739648_0013_20010320_051103p.mb57.gz 3.26MB Simrad multibeam processing format
20070727123739649_0013_20010323_060622p.mb57.gz 0.65MB Simrad multibeam processing format
20070727123740650_0013_20010323_231651p.mb57.gz 4.07MB Simrad multibeam processing format
20070727123740651_0013_20010324_143459p.mb57.gz 4.48MB Simrad multibeam processing format
20070727123741652_0014_20010226_125822p.mb57.gz 4.48MB Simrad multibeam processing format
20070727123742653_0014_20010227_035837p.mb57.gz 0.79MB Simrad multibeam processing format
20070727123743654_0014_20010228_045331p.mb57.gz 5.04MB Simrad multibeam processing format
20070727123743655_0014_20010228_211115p.mb57.gz 2.90MB Simrad multibeam processing format
20070727123744656_0014_20010301_133430p.mb57.gz 5.13MB Simrad multibeam processing format
20070727123744657_0014_20010302_042103p.mb57.gz 4.65MB Simrad multibeam processing format
20070727123745658_0014_20010303_000200p.mb57.gz 4.79MB Simrad multibeam processing format
20070727123745659_0014_20010305_031352p.mb57.gz 4.83MB Simrad multibeam processing format
20070727123746660_0014_20010306_025635p.mb57.gz 4.68MB Simrad multibeam processing format
20070727123747661_0014_20010307_031706p.mb57.gz 4.26MB Simrad multibeam processing format
20070727123748662_0014_20010308_060734p.mb57.gz 4.67MB Simrad multibeam processing format
20070727123748663_0014_20010308_223735p.mb57.gz 4.44MB Simrad multibeam processing format
20070727123749664_0014_20010310_030430p.mb57.gz 4.33MB Simrad multibeam processing format
20070727123749665_0014_20010310_230905p.mb57.gz 4.74MB Simrad multibeam processing format
20070727123750666_0014_20010312_074557p.mb57.gz 4.35MB Simrad multibeam processing format
20070727123751667_0014_20010317_140701p.mb57.gz 493.7KB Simrad multibeam processing format
20070727123752668_0014_20010320_055437p.mb57.gz 4.27MB Simrad multibeam processing format
20070727123753669_0014_20010324_001651p.mb57.gz 3.90MB Simrad multibeam processing format
20070727123753670_0014_20010324_153459p.mb57.gz 1.40MB Simrad multibeam processing format
20070727123753671_0015_20010227_041538p.mb57.gz 185.5KB Simrad multibeam processing format
20070727123754672_0015_20010228_055331p.mb57.gz 3.66MB Simrad multibeam processing format
20070727123755673_0015_20010228_214740p.mb57.gz 354.8KB Simrad multibeam processing format
20070727123755674_0015_20010301_143430p.mb57.gz 3.84MB Simrad multibeam processing format
20070727123756675_0015_20010302_052103p.mb57.gz 4.56MB Simrad multibeam processing format
20070727123757676_0015_20010303_010200p.mb57.gz 4.88MB Simrad multibeam processing format
20070727123758677_0015_20010305_041352p.mb57.gz 4.73MB Simrad multibeam processing format
20070727123759678_0015_20010306_035635p.mb57.gz 2.83MB Simrad multibeam processing format
20070727123759679_0015_20010307_041706p.mb57.gz 4.25MB Simrad multibeam processing format
20070727123800680_0015_20010308_070734p.mb57.gz 4.66MB Simrad multibeam processing format
20070727123800681_0015_20010308_233735p.mb57.gz 4.50MB Simrad multibeam processing format
20070727123801682_0015_20010310_040430p.mb57.gz 4.40MB Simrad multibeam processing format
20070727123803683_0015_20010311_000905p.mb57.gz 4.64MB Simrad multibeam processing format
20070727123803684_0015_20010312_084557p.mb57.gz 4.33MB Simrad multibeam processing format
20070727123804685_0015_20010324_011651p.mb57.gz 3.99MB Simrad multibeam processing format
20070727123804686_0015_20010324_155418p.mb57.gz 4.60MB Simrad multibeam processing format
20070727123805687_0016_20010227_041937p.mb57.gz 2.39MB Simrad multibeam processing format
20070727123805688_0016_20010228_063623p.mb57.gz 0.78MB Simrad multibeam processing format
20070727123805689_0016_20010228_215229p.mb57.gz 4.75MB Simrad multibeam processing format
20070727123807690_0016_20010302_062103p.mb57.gz 4.53MB Simrad multibeam processing format
20070727123808691_0016_20010303_020200p.mb57.gz 472.0KB Simrad multibeam processing format
20070727123808692_0016_20010305_051352p.mb57.gz 4.72MB Simrad multibeam processing format
20070727123809693_0016_20010306_043341p.mb57.gz 4.61MB Simrad multibeam processing format
20070727123809694_0016_20010307_051706p.mb57.gz 4.20MB Simrad multibeam processing format
20070727123810695_0016_20010308_080734p.mb57.gz 4.60MB Simrad multibeam processing format
20070727123811696_0016_20010309_003735p.mb57.gz 4.45MB Simrad multibeam processing format
20070727123812697_0016_20010310_050430p.mb57.gz 4.32MB Simrad multibeam processing format
20070727123813698_0016_20010311_010905p.mb57.gz 3.93MB Simrad multibeam processing format
20070727123813699_0016_20010312_094557p.mb57.gz 4.28MB Simrad multibeam processing format
20070727123814700_0016_20010324_021651p.mb57.gz 0.69MB Simrad multibeam processing format
20070727123814701_0016_20010324_165418p.mb57.gz 3.75MB Simrad multibeam processing format
20070727123815702_0017_20010227_051010p.mb57.gz 0.56MB Simrad multibeam processing format
20070727123815703_0017_20010228_064613p.mb57.gz 2.15MB Simrad multibeam processing format
20070727123816704_0017_20010228_225229p.mb57.gz 4.66MB Simrad multibeam processing format
20070727123816705_0017_20010302_072103p.mb57.gz 2.39MB Simrad multibeam processing format
20070727123817706_0017_20010305_061352p.mb57.gz 4.69MB Simrad multibeam processing format
20070727123818707_0017_20010306_053341p.mb57.gz 4.63MB Simrad multibeam processing format
20070727123819708_0017_20010307_061706p.mb57.gz 4.18MB Simrad multibeam processing format
20070727123820709_0017_20010308_090735p.mb57.gz 3.63MB Simrad multibeam processing format
20070727123820710_0017_20010309_013735p.mb57.gz 4.50MB Simrad multibeam processing format
20070727123820711_0017_20010310_060431p.mb57.gz 3.06MB Simrad multibeam processing format
20070727123821712_0017_20010311_020129p.mb57.gz 4.51MB Simrad multibeam processing format
20070727123822713_0017_20010312_104557p.mb57.gz 4.29MB Simrad multibeam processing format
20070727123823714_0017_20010324_022619p.mb57.gz 3.11MB Simrad multibeam processing format
20070727123824715_0017_20010324_174357p.mb57.gz 0.91MB Simrad multibeam processing format
20070727123824716_0018_20010227_052336p.mb57.gz 2.32MB Simrad multibeam processing format
20070727123824717_0018_20010228_092524p.mb57.gz 0.53MB Simrad multibeam processing format
20070727123824718_0018_20010228_235229p.mb57.gz 3.58MB Simrad multibeam processing format
20070727123825719_0018_20010302_075314p.mb57.gz 50.1KB Simrad multibeam processing format
20070727123825720_0018_20010305_071353p.mb57.gz 0.79MB Simrad multibeam processing format
20070727123825721_0018_20010306_063342p.mb57.gz 4.48MB Simrad multibeam processing format
20070727123826722_0018_20010307_071706p.mb57.gz 4.23MB Simrad multibeam processing format
20070727123827723_0018_20010309_023735p.mb57.gz 4.50MB Simrad multibeam processing format
20070727123828724_0018_20010310_064641p.mb57.gz 4.43MB Simrad multibeam processing format
20070727123828725_0018_20010311_030107p.mb57.gz 4.55MB Simrad multibeam processing format
20070727123829726_0018_20010312_114557p.mb57.gz 4.28MB Simrad multibeam processing format
20070727123829727_0018_20010324_192027p.mb57.gz 1.37MB Simrad multibeam processing format
20070727123830728_0019_20010227_061739p.mb57.gz 1.25MB Simrad multibeam processing format
20070727123831729_0019_20010302_075429p.mb57.gz 80.8KB Simrad multibeam processing format
20070727123831730_0019_20010306_073342p.mb57.gz 4.48MB Simrad multibeam processing format
20070727123832731_0019_20010307_081706p.mb57.gz 4.28MB Simrad multibeam processing format
20070727123833732_0019_20010309_033735p.mb57.gz 4.48MB Simrad multibeam processing format
20070727123833733_0019_20010310_074641p.mb57.gz 4.42MB Simrad multibeam processing format
20070727123834734_0019_20010311_040126p.mb57.gz 4.53MB Simrad multibeam processing format
20070727123835735_0019_20010312_124557p.mb57.gz 4.29MB Simrad multibeam processing format
20070727123835736_0019_20010324_193928p.mb57.gz 36.2KB Simrad multibeam processing format
20070727123835737_0020_20010227_063220p.mb57.gz 3.90MB Simrad multibeam processing format
20070727123836738_0020_20010302_084247p.mb57.gz 4.19MB Simrad multibeam processing format
20070727123837739_0020_20010305_072441p.mb57.gz 4.74MB Simrad multibeam processing format
20070727123838740_0020_20010306_083342p.mb57.gz 4.39MB Simrad multibeam processing format
20070727123839741_0020_20010307_091706p.mb57.gz 4.26MB Simrad multibeam processing format
20070727123840742_0020_20010309_043735p.mb57.gz 4.55MB Simrad multibeam processing format
20070727123840743_0020_20010310_084641p.mb57.gz 4.00MB Simrad multibeam processing format
20070727123841744_0020_20010311_050121p.mb57.gz 4.59MB Simrad multibeam processing format
20070727123842745_0020_20010312_134557p.mb57.gz 297.1KB Simrad multibeam processing format
20070727123843746_0021_20010227_071849p.mb57.gz 1.20MB Simrad multibeam processing format
20070727123843747_0021_20010302_094247p.mb57.gz 1.64MB Simrad multibeam processing format
20070727123844748_0021_20010305_082441p.mb57.gz 4.69MB Simrad multibeam processing format
20070727123844749_0021_20010306_093342p.mb57.gz 4.42MB Simrad multibeam processing format
20070727123845750_0021_20010307_101706p.mb57.gz 4.26MB Simrad multibeam processing format
20070727123845751_0021_20010309_053735p.mb57.gz 4.41MB Simrad multibeam processing format
20070727123845752_0021_20010311_060222p.mb57.gz 374.0KB Simrad multibeam processing format
20070727123846753_0022_20010227_073412p.mb57.gz 4.16MB Simrad multibeam processing format
20070727123848754_0022_20010305_092441p.mb57.gz 4.74MB Simrad multibeam processing format
20070727123848755_0022_20010306_103342p.mb57.gz 4.39MB Simrad multibeam processing format
20070727123848756_0022_20010307_111706p.mb57.gz 4.19MB Simrad multibeam processing format
20070727123849757_0022_20010309_063735p.mb57.gz 4.39MB Simrad multibeam processing format
20070727123849758_0022_20010311_060725p.mb57.gz 4.42MB Simrad multibeam processing format
20070727123850759_0023_20010227_082444p.mb57.gz 3.09MB Simrad multibeam processing format
20070727123851760_0023_20010305_102441p.mb57.gz 4.78MB Simrad multibeam processing format
20070727123853761_0023_20010306_113342p.mb57.gz 4.26MB Simrad multibeam processing format
20070727123853762_0023_20010307_121706p.mb57.gz 4.18MB Simrad multibeam processing format
20070727123854763_0023_20010309_073735p.mb57.gz 4.46MB Simrad multibeam processing format
20070727123855764_0023_20010311_070725p.mb57.gz 4.53MB Simrad multibeam processing format
20070727123855765_0024_20010227_090222p.mb57.gz 4.93MB Simrad multibeam processing format
20070727123856766_0024_20010305_112442p.mb57.gz 4.71MB Simrad multibeam processing format
20070727123857767_0024_20010307_131706p.mb57.gz 4.14MB Simrad multibeam processing format
20070727123858768_0024_20010309_083735p.mb57.gz 4.41MB Simrad multibeam processing format
20070727123859769_0024_20010311_080725p.mb57.gz 4.57MB Simrad multibeam processing format
20070727123900770_0025_20010227_100254p.mb57.gz 4.85MB Simrad multibeam processing format
20070727123901771_0025_20010305_122442p.mb57.gz 4.64MB Simrad multibeam processing format
20070727123903772_0025_20010307_141706p.mb57.gz 4.11MB Simrad multibeam processing format
20070727123904773_0025_20010309_093736p.mb57.gz 4.44MB Simrad multibeam processing format
20070727123904774_0025_20010311_090725p.mb57.gz 4.69MB Simrad multibeam processing format
20070727123905775_0026_20010227_110254p.mb57.gz 4.89MB Simrad multibeam processing format
20070727123906776_0026_20010305_132442p.mb57.gz 1.42MB Simrad multibeam processing format
20070727123907777_0026_20010307_151706p.mb57.gz 1.88MB Simrad multibeam processing format
20070727123908778_0026_20010309_103736p.mb57.gz 4.46MB Simrad multibeam processing format
20070727123908779_0026_20010311_100725p.mb57.gz 4.61MB Simrad multibeam processing format
20070727123908780_0027_20010227_120255p.mb57.gz 4.95MB Simrad multibeam processing format
20070727123909781_0027_20010309_113736p.mb57.gz 1.17MB Simrad multibeam processing format
20070727123909782_0027_20010311_110725p.mb57.gz 4.62MB Simrad multibeam processing format
20070727123910783_0028_20010227_130255p.mb57.gz 4.94MB Simrad multibeam processing format
20070727123910784_0028_20010311_120725p.mb57.gz 4.60MB Simrad multibeam processing format
20070727123911785_0029_20010227_140255p.mb57.gz 4.92MB Simrad multibeam processing format
20070727123913786_0029_20010311_130725p.mb57.gz 4.63MB Simrad multibeam processing format
20070727123913787_0030_20010227_150255p.mb57.gz 4.86MB Simrad multibeam processing format
20070727123913788_0030_20010311_140725p.mb57.gz 4.61MB Simrad multibeam processing format
20070727123914789_0031_20010227_160255p.mb57.gz 2.08MB Simrad multibeam processing format
20070727123915790_0031_20010311_150725p.mb57.gz 2.33MB Simrad multibeam processing format
20070727123915791_0032_20010311_153901p.mb57.gz 4.59MB Simrad multibeam processing format
20070727123916792_0033_20010311_163901p.mb57.gz 4.59MB Simrad multibeam processing format
20070727123917793_0034_20010311_173901p.mb57.gz 4.52MB Simrad multibeam processing format
20070727123918794_0035_20010311_183901p.mb57.gz 1.18MB Simrad multibeam processing format

Metadata Files: 796

Files File Size Description
SEAW03RR_Multibeam.xml NGDC created ISO metadata
20070727123021001_0001_20010226_024553p.mb57.mif 9.2KB Metadata I?? File for each individual data file
20070727123022002_0001_20010226_145627p.mb57.mif 9.2KB Metadata I?? File for each individual data file
20070727123022003_0001_20010227_163013p.mb57.mif 9.2KB Metadata I?? File for each individual data file
20070727123022004_0001_20010227_164350p.mb57.mif 9.2KB Metadata I?? File for each individual data file
20070727123023005_0001_20010228_093202p.mb57.mif 9.2KB Metadata I?? File for each individual data file
20070727123023006_0001_20010228_101755p.mb57.mif 9.2KB Metadata I?? File for each individual data file
20070727123023007_0001_20010301_004106p.mb57.mif 9.2KB Metadata I?? File for each individual data file
20070727123024008_0001_20010301_012139p.mb57.mif 9.2KB Metadata I?? File for each individual data file
20070727123025009_0001_20010301_152140p.mb57.mif 9.2KB Metadata I?? File for each individual data file
20070727123025010_0001_20010301_154209p.mb57.mif 9.2KB Metadata I?? File for each individual data file
20070727123025011_0001_20010301_160539p.mb57.mif 9.2KB Metadata I?? File for each individual data file
20070727123027012_0001_20010302_112155p.mb57.mif 9.2KB Metadata I?? File for each individual data file
20070727123027013_0001_20010303_021323p.mb57.mif 9.2KB Metadata I?? File for each individual data file
20070727123028014_0001_20010303_023826p.mb57.mif 9.2KB Metadata I?? File for each individual data file
20070727123028015_0001_20010303_065306p.mb57.mif 9.2KB Metadata I?? File for each individual data file
20070727123029016_0001_20010303_082208p.mb57.mif 9.2KB Metadata I?? File for each individual data file
20070727123029017_0001_20010303_110156p.mb57.mif 9.2KB Metadata I?? File for each individual data file
20070727123029018_0001_20010303_115032p.mb57.mif 9.2KB Metadata I?? File for each individual data file
20070727123030019_0001_20010303_143810p.mb57.mif 9.2KB Metadata I?? File for each individual data file
20070727123030020_0001_20010303_215728p.mb57.mif 9.2KB Metadata I?? File for each individual data file
20070727123031021_0001_20010304_070855p.mb57.mif 9.2KB Metadata I?? File for each individual data file
20070727123031022_0001_20010304_081233p.mb57.mif 9.2KB Metadata I?? File for each individual data file
20070727123033023_0001_20010304_135222p.mb57.mif 9.2KB Metadata I?? File for each individual data file
20070727123033024_0001_20010304_141351p.mb57.mif 9.2KB Metadata I?? File for each individual data file
20070727123033025_0001_20010305_135145p.mb57.mif 9.2KB Metadata I?? File for each individual data file
20070727123034026_0001_20010305_143025p.mb57.mif 9.2KB Metadata I?? File for each individual data file
20070727123034027_0001_20010306_123526p.mb57.mif 9.2KB Metadata I?? File for each individual data file
20070727123035028_0001_20010306_151241p.mb57.mif 9.2KB Metadata I?? File for each individual data file
20070727123035029_0001_20010307_020147p.mb57.mif 9.2KB Metadata I?? File for each individual data file
20070727123035030_0001_20010307_160442p.mb57.mif 9.2KB Metadata I?? File for each individual data file
20070727123036031_0001_20010307_162911p.mb57.mif 9.2KB Metadata I?? File for each individual data file
20070727123037032_0001_20010308_100102p.mb57.mif 9.2KB Metadata I?? File for each individual data file
20070727123037033_0001_20010308_103908p.mb57.mif 9.2KB Metadata I?? File for each individual data file
20070727123038034_0001_20010309_115841p.mb57.mif 9.2KB Metadata I?? File for each individual data file
20070727123038035_0001_20010309_142851p.mb57.mif 9.2KB Metadata I?? File for each individual data file
20070727123038036_0001_20010310_094639p.mb57.mif 9.2KB Metadata I?? File for each individual data file
20070727123039037_0001_20010310_102740p.mb57.mif 9.2KB Metadata I?? File for each individual data file
20070727123039038_0001_20010311_190049p.mb57.mif 9.2KB Metadata I?? File for each individual data file
20070727123040039_0001_20010311_194234p.mb57.mif 9.2KB Metadata I?? File for each individual data file
20070727123040040_0001_20010312_153447p.mb57.mif 9.2KB Metadata I?? File for each individual data file
20070727123042041_0001_20010313_001836p.mb57.mif 9.2KB Metadata I?? File for each individual data file
20070727123043042_0001_20010313_025230p.mb57.mif 9.2KB Metadata I?? File for each individual data file
20070727123043043_0001_20010313_055441p.mb57.mif 9.2KB Metadata I?? File for each individual data file
20070727123043044_0001_20010313_133949p.mb57.mif 9.2KB Metadata I?? File for each individual data file
20070727123044045_0001_20010313_142404p.mb57.mif 9.2KB Metadata I?? File for each individual data file
20070727123044046_0001_20010313_225916p.mb57.mif 9.2KB Metadata I?? File for each individual data file
20070727123045047_0001_20010313_234338p.mb57.mif 9.2KB Metadata I?? File for each individual data file
20070727123046048_0001_20010313_234544p.mb57.mif 9.2KB Metadata I?? File for each individual data file
20070727123047049_0001_20010314_081537p.mb57.mif 9.2KB Metadata I?? File for each individual data file
20070727123047050_0001_20010314_090144p.mb57.mif 9.2KB Metadata I?? File for each individual data file
20070727123048051_0001_20010314_190224p.mb57.mif 9.2KB Metadata I?? File for each individual data file
20070727123048052_0001_20010315_051947p.mb57.mif 9.2KB Metadata I?? File for each individual data file
20070727123049053_0001_20010315_061457p.mb57.mif 9.2KB Metadata I?? File for each individual data file
20070727123049054_0001_20010315_161107p.mb57.mif 9.2KB Metadata I?? File for each individual data file
20070727123050055_0001_20010315_170938p.mb57.mif 9.2KB Metadata I?? File for each individual data file
20070727123050056_0001_20010316_021147p.mb57.mif 9.2KB Metadata I?? File for each individual data file
20070727123052057_0001_20010316_043644p.mb57.mif 9.2KB Metadata I?? File for each individual data file
20070727123052058_0001_20010316_123236p.mb57.mif 9.2KB Metadata I?? File for each individual data file
20070727123053059_0001_20010316_124501p.mb57.mif 9.2KB Metadata I?? File for each individual data file
20070727123053060_0001_20010316_131347p.mb57.mif 9.2KB Metadata I?? File for each individual data file
20070727123054061_0001_20010317_021837p.mb57.mif 9.2KB Metadata I?? File for each individual data file
20070727123054062_0001_20010317_141541p.mb57.mif 9.2KB Metadata I?? File for each individual data file
20070727123054063_0001_20010317_215250p.mb57.mif 9.2KB Metadata I?? File for each individual data file
20070727123055064_0001_20010317_223606p.mb57.mif 9.2KB Metadata I?? File for each individual data file
20070727123055065_0001_20010318_063725p.mb57.mif 9.2KB Metadata I?? File for each individual data file
20070727123056066_0001_20010318_104450p.mb57.mif 9.2KB Metadata I?? File for each individual data file
20070727123058067_0001_20010318_112844p.mb57.mif 9.2KB Metadata I?? File for each individual data file
20070727123058068_0001_20010318_161752p.mb57.mif 9.2KB Metadata I?? File for each individual data file
20070727123058069_0001_20010318_210121p.mb57.mif 9.2KB Metadata I?? File for each individual data file
20070727123059070_0001_20010319_020148p.mb57.mif 9.2KB Metadata I?? File for each individual data file
20070727123059071_0001_20010319_061337p.mb57.mif 9.2KB Metadata I?? File for each individual data file
20070727123059072_0001_20010319_135207p.mb57.mif 9.2KB Metadata I?? File for each individual data file
20070727123100073_0001_20010319_221630p.mb57.mif 9.2KB Metadata I?? File for each individual data file
20070727123102074_0001_20010319_224227p.mb57.mif 9.2KB Metadata I?? File for each individual data file
20070727123102075_0001_20010319_224357p.mb57.mif 9.2KB Metadata I?? File for each individual data file
20070727123103076_0001_20010320_065416p.mb57.mif 9.2KB Metadata I?? File for each individual data file
20070727123103077_0001_20010320_144027p.mb57.mif 9.2KB Metadata I?? File for each individual data file
20070727123104078_0001_20010320_204601p.mb57.mif 9.2KB Metadata I?? File for each individual data file
20070727123104079_0001_20010321_024415p.mb57.mif 9.2KB Metadata I?? File for each individual data file
20070727123105080_0001_20010321_105400p.mb57.mif 9.2KB Metadata I?? File for each individual data file
20070727123105081_0001_20010321_190614p.mb57.mif 9.2KB Metadata I?? File for each individual data file
20070727123106082_0001_20010321_192108p.mb57.mif 9.2KB Metadata I?? File for each individual data file
20070727123107083_0001_20010322_030656p.mb57.mif 9.2KB Metadata I?? File for each individual data file
20070727123107084_0001_20010322_112525p.mb57.mif 9.2KB Metadata I?? File for each individual data file
20070727123107085_0001_20010322_192433p.mb57.mif 9.2KB Metadata I?? File for each individual data file
20070727123108086_0001_20010323_064157p.mb57.mif 9.2KB Metadata I?? File for each individual data file
20070727123108087_0001_20010323_121405p.mb57.mif 9.2KB Metadata I?? File for each individual data file
20070727123110088_0001_20010324_030731p.mb57.mif 9.2KB Metadata I?? File for each individual data file
20070727123110089_0001_20010324_194521p.mb57.mif 9.2KB Metadata I?? File for each individual data file
20070727123110090_0001_20010324_210205p.mb57.mif 9.2KB Metadata I?? File for each individual data file
20070727123111091_0001_20010325_004237p.mb57.mif 9.2KB Metadata I?? File for each individual data file
20070727123112092_0001_20010325_030218p.mb57.mif 9.2KB Metadata I?? File for each individual data file
20070727123112093_0001_20010325_061511p.mb57.mif 9.2KB Metadata I?? File for each individual data file
20070727123113094_0001_20010325_085619p.mb57.mif 9.2KB Metadata I?? File for each individual data file
20070727123114095_0002_20010226_034015p.mb57.mif 9.2KB Metadata I?? File for each individual data file
20070727123114096_0002_20010226_154831p.mb57.mif 9.2KB Metadata I?? File for each individual data file
20070727123114097_0002_20010227_163524p.mb57.mif 9.2KB Metadata I?? File for each individual data file
20070727123114098_0002_20010227_165330p.mb57.mif 9.2KB Metadata I?? File for each individual data file
20070727123115099_0002_20010301_011625p.mb57.mif 9.2KB Metadata I?? File for each individual data file
20070727123115100_0002_20010301_022139p.mb57.mif 9.2KB Metadata I?? File for each individual data file
20070727123116101_0002_20010301_170539p.mb57.mif 9.2KB Metadata I?? File for each individual data file
20070727123117102_0002_20010302_122155p.mb57.mif 9.2KB Metadata I?? File for each individual data file
20070727123117103_0002_20010303_031214p.mb57.mif 9.2KB Metadata I?? File for each individual data file
20070727123118104_0002_20010303_071011p.mb57.mif 9.2KB Metadata I?? File for each individual data file
20070727123118105_0002_20010303_082723p.mb57.mif 9.2KB Metadata I?? File for each individual data file
20070727123119106_0002_20010303_125032p.mb57.mif 9.2KB Metadata I?? File for each individual data file
20070727123119107_0002_20010303_153810p.mb57.mif 9.2KB Metadata I?? File for each individual data file
20070727123120108_0002_20010303_225728p.mb57.mif 9.2KB Metadata I?? File for each individual data file
20070727123121109_0002_20010304_071108p.mb57.mif 9.2KB Metadata I?? File for each individual data file
20070727123122110_0002_20010304_091233p.mb57.mif 9.2KB Metadata I?? File for each individual data file
20070727123122111_0002_20010304_151351p.mb57.mif 9.2KB Metadata I?? File for each individual data file
20070727123123112_0002_20010305_134505p.mb57.mif 9.2KB Metadata I?? File for each individual data file
20070727123123113_0002_20010305_153025p.mb57.mif 9.2KB Metadata I?? File for each individual data file
20070727123123114_0002_20010306_141603p.mb57.mif 9.2KB Metadata I?? File for each individual data file
20070727123124115_0002_20010306_161241p.mb57.mif 9.2KB Metadata I?? File for each individual data file
20070727123125116_0002_20010307_160930p.mb57.mif 9.2KB Metadata I?? File for each individual data file
20070727123126117_0002_20010307_172911p.mb57.mif 9.2KB Metadata I?? File for each individual data file
20070727123127118_0002_20010308_101103p.mb57.mif 9.2KB Metadata I?? File for each individual data file
20070727123127119_0002_20010308_113908p.mb57.mif 9.2KB Metadata I?? File for each individual data file
20070727123128120_0002_20010309_144650p.mb57.mif 9.2KB Metadata I?? File for each individual data file
20070727123129121_0002_20010310_112740p.mb57.mif 9.2KB Metadata I?? File for each individual data file
20070727123130122_0002_20010311_204234p.mb57.mif 9.2KB Metadata I?? File for each individual data file
20070727123130123_0002_20010312_160035p.mb57.mif 9.2KB Metadata I?? File for each individual data file
20070727123130124_0002_20010312_221621p.mb57.mif 9.2KB Metadata I?? File for each individual data file
20070727123131125_0002_20010313_003917p.mb57.mif 9.2KB Metadata I?? File for each individual data file
20070727123132126_0002_20010313_025607p.mb57.mif 9.2KB Metadata I?? File for each individual data file
20070727123133127_0002_20010313_065441p.mb57.mif 9.2KB Metadata I?? File for each individual data file
20070727123134128_0002_20010313_140144p.mb57.mif 9.2KB Metadata I?? File for each individual data file
20070727123134129_0002_20010313_152404p.mb57.mif 9.2KB Metadata I?? File for each individual data file
20070727123134130_0002_20010314_004544p.mb57.mif 9.2KB Metadata I?? File for each individual data file
20070727123135131_0002_20010314_100145p.mb57.mif 9.2KB Metadata I?? File for each individual data file
20070727123135132_0002_20010314_190742p.mb57.mif 9.2KB Metadata I?? File for each individual data file
20070727123137133_0002_20010315_054119p.mb57.mif 9.2KB Metadata I?? File for each individual data file
20070727123138134_0002_20010315_071457p.mb57.mif 9.2KB Metadata I?? File for each individual data file
20070727123138135_0002_20010315_180938p.mb57.mif 9.2KB Metadata I?? File for each individual data file
20070727123139136_0002_20010316_031134p.mb57.mif 9.2KB Metadata I?? File for each individual data file
20070727123139137_0002_20010316_043810p.mb57.mif 9.2KB Metadata I?? File for each individual data file
20070727123139138_0002_20010316_141347p.mb57.mif 9.2KB Metadata I?? File for each individual data file
20070727123140139_0002_20010317_030215p.mb57.mif 9.2KB Metadata I?? File for each individual data file
20070727123141140_0002_20010317_151617p.mb57.mif 9.2KB Metadata I?? File for each individual data file
20070727123142141_0002_20010317_221139p.mb57.mif 9.2KB Metadata I?? File for each individual data file
20070727123142142_0002_20010317_233054p.mb57.mif 9.2KB Metadata I?? File for each individual data file
20070727123143143_0002_20010318_073725p.mb57.mif 9.2KB Metadata I?? File for each individual data file
20070727123143144_0002_20010318_105937p.mb57.mif 9.2KB Metadata I?? File for each individual data file
20070727123144145_0002_20010318_122844p.mb57.mif 9.2KB Metadata I?? File for each individual data file
20070727123145146_0002_20010318_171752p.mb57.mif 9.2KB Metadata I?? File for each individual data file
20070727123147147_0002_20010318_210516p.mb57.mif 9.2KB Metadata I?? File for each individual data file
20070727123148148_0002_20010319_020336p.mb57.mif 9.2KB Metadata I?? File for each individual data file
20070727123149149_0002_20010319_064251p.mb57.mif 9.2KB Metadata I?? File for each individual data file
20070727123150150_0002_20010319_152004p.mb57.mif 9.2KB Metadata I?? File for each individual data file
20070727123150151_0002_20010319_234357p.mb57.mif 9.2KB Metadata I?? File for each individual data file
20070727123151152_0002_20010320_081338p.mb57.mif 9.2KB Metadata I?? File for each individual data file
20070727123152153_0002_20010320_154027p.mb57.mif 9.2KB Metadata I?? File for each individual data file
20070727123153154_0002_20010320_204902p.mb57.mif 9.2KB Metadata I?? File for each individual data file
20070727123154155_0002_20010321_034415p.mb57.mif 9.2KB Metadata I?? File for each individual data file
20070727123154156_0002_20010321_115400p.mb57.mif 9.2KB Metadata I?? File for each individual data file
20070727123155157_0002_20010321_190829p.mb57.mif 9.2KB Metadata I?? File for each individual data file
20070727123155158_0002_20010321_192824p.mb57.mif 9.2KB Metadata I?? File for each individual data file
20070727123155159_0002_20010322_030818p.mb57.mif 9.2KB Metadata I?? File for each individual data file
20070727123156160_0002_20010322_113915p.mb57.mif 9.2KB Metadata I?? File for each individual data file
20070727123157161_0002_20010322_193223p.mb57.mif 9.2KB Metadata I?? File for each individual data file
20070727123158162_0002_20010323_065636p.mb57.mif 9.2KB Metadata I?? File for each individual data file
20070727123158163_0002_20010323_131406p.mb57.mif 9.2KB Metadata I?? File for each individual data file
20070727123159164_0002_20010324_040731p.mb57.mif 9.2KB Metadata I?? File for each individual data file
20070727123159165_0002_20010324_204521p.mb57.mif 9.2KB Metadata I?? File for each individual data file
20070727123159166_0002_20010324_210449p.mb57.mif 9.2KB Metadata I?? File for each individual data file
20070727123200167_0002_20010325_014237p.mb57.mif 9.2KB Metadata I?? File for each individual data file
20070727123202168_0002_20010325_030354p.mb57.mif 9.2KB Metadata I?? File for each individual data file
20070727123202169_0002_20010325_063236p.mb57.mif 9.2KB Metadata I?? File for each individual data file
20070727123203170_0002_20010325_095619p.mb57.mif 9.2KB Metadata I?? File for each individual data file
20070727123203171_0003_20010226_163610p.mb57.mif 9.2KB Metadata I?? File for each individual data file
20070727123204172_0003_20010227_175330p.mb57.mif 9.2KB Metadata I?? File for each individual data file
20070727123205173_0003_20010228_102457p.mb57.mif 9.2KB Metadata I?? File for each individual data file
20070727123205174_0003_20010301_032139p.mb57.mif 9.2KB Metadata I?? File for each individual data file
20070727123206175_0003_20010301_172102p.mb57.mif 9.2KB Metadata I?? File for each individual data file
20070727123207176_0003_20010302_101443p.mb57.mif 9.2KB Metadata I?? File for each individual data file
20070727123208177_0003_20010302_132155p.mb57.mif 9.2KB Metadata I?? File for each individual data file
20070727123208178_0003_20010303_041214p.mb57.mif 9.2KB Metadata I?? File for each individual data file
20070727123209179_0003_20010303_071219p.mb57.mif 9.2KB Metadata I?? File for each individual data file
20070727123210180_0003_20010303_092723p.mb57.mif 9.2KB Metadata I?? File for each individual data file
20070727123210181_0003_20010303_135032p.mb57.mif 9.2KB Metadata I?? File for each individual data file
20070727123211182_0003_20010303_163810p.mb57.mif 9.2KB Metadata I?? File for each individual data file
20070727123213183_0003_20010303_235729p.mb57.mif 9.2KB Metadata I?? File for each individual data file
20070727123214184_0003_20010304_071425p.mb57.mif 9.2KB Metadata I?? File for each individual data file
20070727123214185_0003_20010304_101233p.mb57.mif 9.2KB Metadata I?? File for each individual data file
20070727123215186_0003_20010304_161351p.mb57.mif 9.2KB Metadata I?? File for each individual data file
20070727123215187_0003_20010305_163025p.mb57.mif 9.2KB Metadata I?? File for each individual data file
20070727123216188_0003_20010306_144508p.mb57.mif 9.2KB Metadata I?? File for each individual data file
20070727123217189_0003_20010306_171241p.mb57.mif 9.2KB Metadata I?? File for each individual data file
20070727123217190_0003_20010307_182911p.mb57.mif 9.2KB Metadata I?? File for each individual data file
20070727123218191_0003_20010308_123908p.mb57.mif 9.2KB Metadata I?? File for each individual data file
20070727123219192_0003_20010309_154650p.mb57.mif 9.2KB Metadata I?? File for each individual data file
20070727123219193_0003_20010310_122740p.mb57.mif 9.2KB Metadata I?? File for each individual data file
20070727123220194_0003_20010311_214234p.mb57.mif 9.2KB Metadata I?? File for each individual data file
20070727123221195_0003_20010312_160337p.mb57.mif 9.2KB Metadata I?? File for each individual data file
20070727123222196_0003_20010312_222818p.mb57.mif 9.2KB Metadata I?? File for each individual data file
20070727123223197_0003_20010313_013917p.mb57.mif 9.2KB Metadata I?? File for each individual data file
20070727123223198_0003_20010313_035607p.mb57.mif 9.2KB Metadata I?? File for each individual data file
20070727123224199_0003_20010313_075442p.mb57.mif 9.2KB Metadata I?? File for each individual data file
20070727123225200_0003_20010313_162404p.mb57.mif 9.2KB Metadata I?? File for each individual data file
20070727123225201_0003_20010314_013227p.mb57.mif 9.2KB Metadata I?? File for each individual data file
20070727123227202_0003_20010314_110145p.mb57.mif 9.2KB Metadata I?? File for each individual data file
20070727123227203_0003_20010314_200742p.mb57.mif 9.2KB Metadata I?? File for each individual data file
20070727123228204_0003_20010315_081458p.mb57.mif 9.2KB Metadata I?? File for each individual data file
20070727123229205_0003_20010315_190938p.mb57.mif 9.2KB Metadata I?? File for each individual data file
20070727123230206_0003_20010316_031448p.mb57.mif 9.2KB Metadata I?? File for each individual data file
20070727123230207_0003_20010316_053810p.mb57.mif 9.2KB Metadata I?? File for each individual data file
20070727123232208_0003_20010316_142243p.mb57.mif 9.2KB Metadata I?? File for each individual data file
20070727123233209_0003_20010317_040226p.mb57.mif 9.2KB Metadata I?? File for each individual data file
20070727123234210_0003_20010317_164532p.mb57.mif 9.2KB Metadata I?? File for each individual data file
20070727123234211_0003_20010318_003054p.mb57.mif 9.2KB Metadata I?? File for each individual data file
20070727123235212_0003_20010318_083725p.mb57.mif 9.2KB Metadata I?? File for each individual data file
20070727123235213_0003_20010318_132844p.mb57.mif 9.2KB Metadata I?? File for each individual data file
20070727123237214_0003_20010318_181752p.mb57.mif 9.2KB Metadata I?? File for each individual data file
20070727123238215_0003_20010318_220516p.mb57.mif 9.2KB Metadata I?? File for each individual data file
20070727123238216_0003_20010319_035935p.mb57.mif 9.2KB Metadata I?? File for each individual data file
20070727123239217_0003_20010319_065032p.mb57.mif 9.2KB Metadata I?? File for each individual data file
20070727123239218_0003_20010319_162004p.mb57.mif 9.2KB Metadata I?? File for each individual data file
20070727123240219_0003_20010320_004357p.mb57.mif 9.2KB Metadata I?? File for each individual data file
20070727123243220_0003_20010320_090430p.mb57.mif 9.2KB Metadata I?? File for each individual data file
20070727123243221_0003_20010320_164027p.mb57.mif 9.2KB Metadata I?? File for each individual data file
20070727123244222_0003_20010320_214903p.mb57.mif 9.2KB Metadata I?? File for each individual data file
20070727123245223_0003_20010321_044415p.mb57.mif 9.2KB Metadata I?? File for each individual data file
20070727123245224_0003_20010321_125400p.mb57.mif 9.2KB Metadata I?? File for each individual data file
20070727123247225_0003_20010321_193252p.mb57.mif 9.2KB Metadata I?? File for each individual data file
20070727123247226_0003_20010322_040818p.mb57.mif 9.2KB Metadata I?? File for each individual data file
20070727123248227_0003_20010322_123915p.mb57.mif 9.2KB Metadata I?? File for each individual data file
20070727123248228_0003_20010322_203223p.mb57.mif 9.2KB Metadata I?? File for each individual data file
20070727123249229_0003_20010323_075636p.mb57.mif 9.2KB Metadata I?? File for each individual data file
20070727123250230_0003_20010323_141406p.mb57.mif 9.2KB Metadata I?? File for each individual data file
20070727123251231_0003_20010324_043458p.mb57.mif 9.2KB Metadata I?? File for each individual data file
20070727123252232_0003_20010324_220449p.mb57.mif 9.2KB Metadata I?? File for each individual data file
20070727123253233_0003_20010325_022943p.mb57.mif 9.2KB Metadata I?? File for each individual data file
20070727123254234_0003_20010325_040354p.mb57.mif 9.2KB Metadata I?? File for each individual data file
20070727123254235_0003_20010325_073236p.mb57.mif 9.2KB Metadata I?? File for each individual data file
20070727123255236_0003_20010325_105619p.mb57.mif 9.2KB Metadata I?? File for each individual data file
20070727123255237_0004_20010226_041252p.mb57.mif 9.2KB Metadata I?? File for each individual data file
20070727123256238_0004_20010226_164257p.mb57.mif 9.2KB Metadata I?? File for each individual data file
20070727123257239_0004_20010227_185330p.mb57.mif 9.2KB Metadata I?? File for each individual data file
20070727123258240_0004_20010228_111114p.mb57.mif 9.2KB Metadata I?? File for each individual data file
20070727123259241_0004_20010301_042139p.mb57.mif 9.2KB Metadata I?? File for each individual data file
20070727123259242_0004_20010301_182102p.mb57.mif 9.2KB Metadata I?? File for each individual data file
20070727123259243_0004_20010302_111443p.mb57.mif 9.2KB Metadata I?? File for each individual data file
20070727123300244_0004_20010302_142155p.mb57.mif 9.2KB Metadata I?? File for each individual data file
20070727123300245_0004_20010303_051214p.mb57.mif 9.2KB Metadata I?? File for each individual data file
20070727123302246_0004_20010303_081219p.mb57.mif 9.2KB Metadata I?? File for each individual data file
20070727123302247_0004_20010303_102723p.mb57.mif 9.2KB Metadata I?? File for each individual data file
20070727123303248_0004_20010303_173810p.mb57.mif 9.2KB Metadata I?? File for each individual data file
20070727123303249_0004_20010304_005729p.mb57.mif 9.2KB Metadata I?? File for each individual data file
20070727123304250_0004_20010304_071950p.mb57.mif 9.2KB Metadata I?? File for each individual data file
20070727123304251_0004_20010304_111233p.mb57.mif 9.2KB Metadata I?? File for each individual data file
20070727123304252_0004_20010304_171351p.mb57.mif 9.2KB Metadata I?? File for each individual data file
20070727123305253_0004_20010305_173025p.mb57.mif 9.2KB Metadata I?? File for each individual data file
20070727123307254_0004_20010306_181241p.mb57.mif 9.2KB Metadata I?? File for each individual data file
20070727123307255_0004_20010307_192911p.mb57.mif 9.2KB Metadata I?? File for each individual data file
20070727123308256_0004_20010308_133908p.mb57.mif 9.2KB Metadata I?? File for each individual data file
20070727123308257_0004_20010309_164650p.mb57.mif 9.2KB Metadata I?? File for each individual data file
20070727123309258_0004_20010310_132740p.mb57.mif 9.2KB Metadata I?? File for each individual data file
20070727123310259_0004_20010311_224234p.mb57.mif 9.2KB Metadata I?? File for each individual data file
20070727123311260_0004_20010312_170337p.mb57.mif 9.2KB Metadata I?? File for each individual data file
20070727123312261_0004_20010312_232818p.mb57.mif 9.2KB Metadata I?? File for each individual data file
20070727123313262_0004_20010313_023348p.mb57.mif 9.2KB Metadata I?? File for each individual data file
20070727123313263_0004_20010313_044220p.mb57.mif 9.2KB Metadata I?? File for each individual data file
20070727123314264_0004_20010313_085442p.mb57.mif 9.2KB Metadata I?? File for each individual data file
20070727123314265_0004_20010313_172404p.mb57.mif 9.2KB Metadata I?? File for each individual data file
20070727123315266_0004_20010314_023227p.mb57.mif 9.2KB Metadata I?? File for each individual data file
20070727123315267_0004_20010314_120145p.mb57.mif 9.2KB Metadata I?? File for each individual data file
20070727123317268_0004_20010314_210742p.mb57.mif 9.2KB Metadata I?? File for each individual data file
20070727123318269_0004_20010315_091458p.mb57.mif 9.2KB Metadata I?? File for each individual data file
20070727123318270_0004_20010315_200939p.mb57.mif 9.2KB Metadata I?? File for each individual data file
20070727123319271_0004_20010316_041448p.mb57.mif 9.2KB Metadata I?? File for each individual data file
20070727123319272_0004_20010316_063810p.mb57.mif 9.2KB Metadata I?? File for each individual data file
20070727123319273_0004_20010316_145022p.mb57.mif 9.2KB Metadata I?? File for each individual data file
20070727123320274_0004_20010317_050729p.mb57.mif 9.2KB Metadata I?? File for each individual data file
20070727123320275_0004_20010317_175927p.mb57.mif 9.2KB Metadata I?? File for each individual data file
20070727123322276_0004_20010318_013054p.mb57.mif 9.2KB Metadata I?? File for each individual data file
20070727123323277_0004_20010318_093725p.mb57.mif 9.2KB Metadata I?? File for each individual data file
20070727123323278_0004_20010318_142844p.mb57.mif 9.2KB Metadata I?? File for each individual data file
20070727123324279_0004_20010318_182040p.mb57.mif 9.2KB Metadata I?? File for each individual data file
20070727123324280_0004_20010318_230516p.mb57.mif 9.2KB Metadata I?? File for each individual data file
20070727123325281_0004_20010319_042443p.mb57.mif 9.2KB Metadata I?? File for each individual data file
20070727123326282_0004_20010319_093235p.mb57.mif 9.2KB Metadata I?? File for each individual data file
20070727123327283_0004_20010319_181743p.mb57.mif 9.2KB Metadata I?? File for each individual data file
20070727123328284_0004_20010320_020018p.mb57.mif 9.2KB Metadata I?? File for each individual data file
20070727123328285_0004_20010320_090717p.mb57.mif 9.2KB Metadata I?? File for each individual data file
20070727123329286_0004_20010320_174027p.mb57.mif 9.2KB Metadata I?? File for each individual data file
20070727123330287_0004_20010320_224903p.mb57.mif 9.2KB Metadata I?? File for each individual data file
20070727123331288_0004_20010321_054155p.mb57.mif 9.2KB Metadata I?? File for each individual data file
20070727123332289_0004_20010321_135400p.mb57.mif 9.2KB Metadata I?? File for each individual data file
20070727123332290_0004_20010321_203252p.mb57.mif 9.2KB Metadata I?? File for each individual data file
20070727123333291_0004_20010322_050818p.mb57.mif 9.2KB Metadata I?? File for each individual data file
20070727123334292_0004_20010322_133915p.mb57.mif 9.2KB Metadata I?? File for each individual data file
20070727123335293_0004_20010322_213223p.mb57.mif 9.2KB Metadata I?? File for each individual data file
20070727123335294_0004_20010323_085636p.mb57.mif 9.2KB Metadata I?? File for each individual data file
20070727123336295_0004_20010323_151406p.mb57.mif 9.2KB Metadata I?? File for each individual data file
20070727123337296_0004_20010324_053458p.mb57.mif 9.2KB Metadata I?? File for each individual data file
20070727123338297_0004_20010324_230449p.mb57.mif 9.2KB Metadata I?? File for each individual data file
20070727123339298_0004_20010325_025612p.mb57.mif 9.2KB Metadata I?? File for each individual data file
20070727123339299_0004_20010325_050354p.mb57.mif 9.2KB Metadata I?? File for each individual data file
20070727123339300_0004_20010325_083236p.mb57.mif 9.2KB Metadata I?? File for each individual data file
20070727123340301_0004_20010325_114645p.mb57.mif 9.2KB Metadata I?? File for each individual data file
20070727123340302_0005_20010226_171151p.mb57.mif 9.2KB Metadata I?? File for each individual data file
20070727123341303_0005_20010227_195330p.mb57.mif 9.2KB Metadata I?? File for each individual data file
20070727123342304_0005_20010228_121114p.mb57.mif 9.2KB Metadata I?? File for each individual data file
20070727123343305_0005_20010301_052139p.mb57.mif 9.2KB Metadata I?? File for each individual data file
20070727123343306_0005_20010301_192102p.mb57.mif 9.2KB Metadata I?? File for each individual data file
20070727123343307_0005_20010302_152156p.mb57.mif 9.2KB Metadata I?? File for each individual data file
20070727123344308_0005_20010303_061214p.mb57.mif 9.2KB Metadata I?? File for each individual data file
20070727123344309_0005_20010303_183810p.mb57.mif 9.2KB Metadata I?? File for each individual data file
20070727123345310_0005_20010304_015729p.mb57.mif 9.2KB Metadata I?? File for each individual data file
20070727123347311_0005_20010304_072229p.mb57.mif 9.2KB Metadata I?? File for each individual data file
20070727123348312_0005_20010304_121233p.mb57.mif 9.2KB Metadata I?? File for each individual data file
20070727123348313_0005_20010304_181352p.mb57.mif 9.2KB Metadata I?? File for each individual data file
20070727123348314_0005_20010305_183025p.mb57.mif 9.2KB Metadata I?? File for each individual data file
20070727123349315_0005_20010306_191241p.mb57.mif 9.2KB Metadata I?? File for each individual data file
20070727123350316_0005_20010307_202911p.mb57.mif 9.2KB Metadata I?? File for each individual data file
20070727123351317_0005_20010308_143908p.mb57.mif 9.2KB Metadata I?? File for each individual data file
20070727123352318_0005_20010309_174650p.mb57.mif 9.2KB Metadata I?? File for each individual data file
20070727123353319_0005_20010310_142740p.mb57.mif 9.2KB Metadata I?? File for each individual data file
20070727123354320_0005_20010311_234234p.mb57.mif 9.2KB Metadata I?? File for each individual data file
20070727123355321_0005_20010312_180337p.mb57.mif 9.2KB Metadata I?? File for each individual data file
20070727123355322_0005_20010313_054220p.mb57.mif 9.2KB Metadata I?? File for each individual data file
20070727123356323_0005_20010313_095442p.mb57.mif 9.2KB Metadata I?? File for each individual data file
20070727123357324_0005_20010313_182404p.mb57.mif 9.2KB Metadata I?? File for each individual data file
20070727123357325_0005_20010314_033227p.mb57.mif 9.2KB Metadata I?? File for each individual data file
20070727123358326_0005_20010314_130145p.mb57.mif 9.2KB Metadata I?? File for each individual data file
20070727123358327_0005_20010314_220742p.mb57.mif 9.2KB Metadata I?? File for each individual data file
20070727123359328_0005_20010315_101458p.mb57.mif 9.2KB Metadata I?? File for each individual data file
20070727123359329_0005_20010315_210939p.mb57.mif 9.2KB Metadata I?? File for each individual data file
20070727123400330_0005_20010316_043212p.mb57.mif 9.2KB Metadata I?? File for each individual data file
20070727123400331_0005_20010316_073810p.mb57.mif 9.2KB Metadata I?? File for each individual data file
20070727123400332_0005_20010316_155022p.mb57.mif 9.2KB Metadata I?? File for each individual data file
20070727123403333_0005_20010317_060011p.mb57.mif 9.2KB Metadata I?? File for each individual data file
20070727123403334_0005_20010317_185938p.mb57.mif 9.2KB Metadata I?? File for each individual data file
20070727123404335_0005_20010318_023054p.mb57.mif 9.2KB Metadata I?? File for each individual data file
20070727123404336_0005_20010318_103725p.mb57.mif 9.2KB Metadata I?? File for each individual data file
20070727123405337_0005_20010318_152844p.mb57.mif 9.2KB Metadata I?? File for each individual data file
20070727123405338_0005_20010318_192040p.mb57.mif 9.2KB Metadata I?? File for each individual data file
20070727123407339_0005_20010319_000516p.mb57.mif 9.2KB Metadata I?? File for each individual data file
20070727123408340_0005_20010319_052443p.mb57.mif 9.2KB Metadata I?? File for each individual data file
20070727123409341_0005_20010319_105201p.mb57.mif 9.2KB Metadata I?? File for each individual data file
20070727123410342_0005_20010319_182319p.mb57.mif 9.2KB Metadata I?? File for each individual data file
20070727123410343_0005_20010320_022429p.mb57.mif 9.2KB Metadata I?? File for each individual data file
20070727123411344_0005_20010320_105601p.mb57.mif 9.2KB Metadata I?? File for each individual data file
20070727123411345_0005_20010320_184027p.mb57.mif 9.2KB Metadata I?? File for each individual data file
20070727123412346_0005_20010320_234903p.mb57.mif 9.2KB Metadata I?? File for each individual data file
20070727123412347_0005_20010321_064155p.mb57.mif 9.2KB Metadata I?? File for each individual data file
20070727123414348_0005_20010321_145400p.mb57.mif 9.2KB Metadata I?? File for each individual data file
20070727123414349_0005_20010321_213252p.mb57.mif 9.2KB Metadata I?? File for each individual data file
20070727123415350_0005_20010322_060818p.mb57.mif 9.2KB Metadata I?? File for each individual data file
20070727123415351_0005_20010322_143915p.mb57.mif 9.2KB Metadata I?? File for each individual data file
20070727123417352_0005_20010322_223223p.mb57.mif 9.2KB Metadata I?? File for each individual data file
20070727123418353_0005_20010323_095636p.mb57.mif 9.2KB Metadata I?? File for each individual data file
20070727123418354_0005_20010323_161406p.mb57.mif 9.2KB Metadata I?? File for each individual data file
20070727123419355_0005_20010324_063458p.mb57.mif 9.2KB Metadata I?? File for each individual data file
20070727123419356_0005_20010325_000030p.mb57.mif 9.2KB Metadata I?? File for each individual data file
20070727123420357_0005_20010325_053708p.mb57.mif 9.2KB Metadata I?? File for each individual data file
20070727123420358_0005_20010325_120315p.mb57.mif 9.2KB Metadata I?? File for each individual data file
20070727123421359_0006_20010226_052439p.mb57.mif 9.2KB Metadata I?? File for each individual data file
20070727123422360_0006_20010226_203015p.mb57.mif 9.2KB Metadata I?? File for each individual data file
20070727123422361_0006_20010227_205330p.mb57.mif 9.2KB Metadata I?? File for each individual data file
20070727123423362_0006_20010228_131114p.mb57.mif 9.2KB Metadata I?? File for each individual data file
20070727123423363_0006_20010301_062139p.mb57.mif 9.2KB Metadata I?? File for each individual data file
20070727123424364_0006_20010301_202102p.mb57.mif 9.2KB Metadata I?? File for each individual data file
20070727123424365_0006_20010302_162156p.mb57.mif 9.2KB Metadata I?? File for each individual data file
20070727123425366_0006_20010303_193810p.mb57.mif 9.2KB Metadata I?? File for each individual data file
20070727123426367_0006_20010304_025729p.mb57.mif 9.2KB Metadata I?? File for each individual data file
20070727123427368_0006_20010304_074702p.mb57.mif 9.2KB Metadata I?? File for each individual data file
20070727123428369_0006_20010304_131233p.mb57.mif 9.2KB Metadata I?? File for each individual data file
20070727123428370_0006_20010304_191352p.mb57.mif 9.2KB Metadata I?? File for each individual data file
20070727123428371_0006_20010305_193025p.mb57.mif 9.2KB Metadata I?? File for each individual data file
20070727123429372_0006_20010306_201241p.mb57.mif 9.2KB Metadata I?? File for each individual data file
20070727123430373_0006_20010307_222900p.mb57.mif 9.2KB Metadata I?? File for each individual data file
20070727123430374_0006_20010308_153909p.mb57.mif 9.2KB Metadata I?? File for each individual data file
20070727123432375_0006_20010309_184650p.mb57.mif 9.2KB Metadata I?? File for each individual data file
20070727123432376_0006_20010310_152740p.mb57.mif 9.2KB Metadata I?? File for each individual data file
20070727123433377_0006_20010312_004234p.mb57.mif 9.2KB Metadata I?? File for each individual data file
20070727123434378_0006_20010312_190337p.mb57.mif 9.2KB Metadata I?? File for each individual data file
20070727123434379_0006_20010313_105442p.mb57.mif 9.2KB Metadata I?? File for each individual data file
20070727123435380_0006_20010313_192404p.mb57.mif 9.2KB Metadata I?? File for each individual data file
20070727123435381_0006_20010314_043227p.mb57.mif 9.2KB Metadata I?? File for each individual data file
20070727123437382_0006_20010314_140145p.mb57.mif 9.2KB Metadata I?? File for each individual data file
20070727123438383_0006_20010314_230742p.mb57.mif 9.2KB Metadata I?? File for each individual data file
20070727123439384_0006_20010315_111458p.mb57.mif 9.2KB Metadata I?? File for each individual data file
20070727123439385_0006_20010315_211712p.mb57.mif 9.2KB Metadata I?? File for each individual data file
20070727123439386_0006_20010316_083810p.mb57.mif 9.2KB Metadata I?? File for each individual data file
20070727123440387_0006_20010316_182258p.mb57.mif 9.2KB Metadata I?? File for each individual data file
20070727123440388_0006_20010317_074609p.mb57.mif 9.2KB Metadata I?? File for each individual data file
20070727123441389_0006_20010317_195833p.mb57.mif 9.2KB Metadata I?? File for each individual data file
20070727123442390_0006_20010318_033055p.mb57.mif 9.2KB Metadata I?? File for each individual data file
20070727123443391_0006_20010318_153321p.mb57.mif 9.2KB Metadata I?? File for each individual data file
20070727123443392_0006_20010318_201924p.mb57.mif 9.2KB Metadata I?? File for each individual data file
20070727123443393_0006_20010319_010516p.mb57.mif 9.2KB Metadata I?? File for each individual data file
20070727123444394_0006_20010319_060714p.mb57.mif 9.2KB Metadata I?? File for each individual data file
20070727123444395_0006_20010319_105547p.mb57.mif 9.2KB Metadata I?? File for each individual data file
20070727123445396_0006_20010319_184024p.mb57.mif 9.2KB Metadata I?? File for each individual data file
20070727123445397_0006_20010320_022644p.mb57.mif 9.2KB Metadata I?? File for each individual data file
20070727123446398_0006_20010320_115601p.mb57.mif 9.2KB Metadata I?? File for each individual data file
20070727123446399_0006_20010320_194027p.mb57.mif 9.2KB Metadata I?? File for each individual data file
20070727123447400_0006_20010321_004903p.mb57.mif 9.2KB Metadata I?? File for each individual data file
20070727123447401_0006_20010321_074155p.mb57.mif 9.2KB Metadata I?? File for each individual data file
20070727123448402_0006_20010321_155400p.mb57.mif 9.2KB Metadata I?? File for each individual data file
20070727123448403_0006_20010321_223252p.mb57.mif 9.2KB Metadata I?? File for each individual data file
20070727123448404_0006_20010322_070014p.mb57.mif 9.2KB Metadata I?? File for each individual data file
20070727123449405_0006_20010322_153915p.mb57.mif 9.2KB Metadata I?? File for each individual data file
20070727123450406_0006_20010322_233223p.mb57.mif 9.2KB Metadata I?? File for each individual data file
20070727123451407_0006_20010323_105636p.mb57.mif 9.2KB Metadata I?? File for each individual data file
20070727123452408_0006_20010323_171406p.mb57.mif 9.2KB Metadata I?? File for each individual data file
20070727123452409_0006_20010324_073458p.mb57.mif 9.2KB Metadata I?? File for each individual data file
20070727123453410_0006_20010325_001940p.mb57.mif 9.2KB Metadata I?? File for each individual data file
20070727123454411_0006_20010325_130315p.mb57.mif 9.2KB Metadata I?? File for each individual data file
20070727123454412_0007_20010226_053905p.mb57.mif 9.2KB Metadata I?? File for each individual data file
20070727123454413_0007_20010226_213015p.mb57.mif 9.2KB Metadata I?? File for each individual data file
20070727123455414_0007_20010227_215330p.mb57.mif 9.2KB Metadata I?? File for each individual data file
20070727123455415_0007_20010228_141114p.mb57.mif 9.2KB Metadata I?? File for each individual data file
20070727123457416_0007_20010301_072139p.mb57.mif 9.2KB Metadata I?? File for each individual data file
20070727123458417_0007_20010301_212102p.mb57.mif 9.2KB Metadata I?? File for each individual data file
20070727123459418_0007_20010302_170200p.mb57.mif 9.2KB Metadata I?? File for each individual data file
20070727123459419_0007_20010303_203810p.mb57.mif 9.2KB Metadata I?? File for each individual data file
20070727123500420_0007_20010304_035729p.mb57.mif 9.2KB Metadata I?? File for each individual data file
20070727123500421_0007_20010304_074825p.mb57.mif 9.2KB Metadata I?? File for each individual data file
20070727123500422_0007_20010304_201352p.mb57.mif 9.2KB Metadata I?? File for each individual data file
20070727123501423_0007_20010305_203025p.mb57.mif 9.2KB Metadata I?? File for each individual data file
20070727123502424_0007_20010306_211242p.mb57.mif 9.2KB Metadata I?? File for each individual data file
20070727123503425_0007_20010307_232900p.mb57.mif 9.2KB Metadata I?? File for each individual data file
20070727123503426_0007_20010308_163909p.mb57.mif 9.2KB Metadata I?? File for each individual data file
20070727123504427_0007_20010309_194651p.mb57.mif 9.2KB Metadata I?? File for each individual data file
20070727123504428_0007_20010310_162740p.mb57.mif 9.2KB Metadata I?? File for each individual data file
20070727123505429_0007_20010312_014234p.mb57.mif 9.2KB Metadata I?? File for each individual data file
20070727123506430_0007_20010312_200337p.mb57.mif 9.2KB Metadata I?? File for each individual data file
20070727123507431_0007_20010313_115442p.mb57.mif 9.2KB Metadata I?? File for each individual data file
20070727123508432_0007_20010313_202404p.mb57.mif 9.2KB Metadata I?? File for each individual data file
20070727123508433_0007_20010314_053227p.mb57.mif 9.2KB Metadata I?? File for each individual data file
20070727123509434_0007_20010315_000742p.mb57.mif 9.2KB Metadata I?? File for each individual data file
20070727123510435_0007_20010315_121458p.mb57.mif 9.2KB Metadata I?? File for each individual data file
20070727123511436_0007_20010315_221712p.mb57.mif 9.2KB Metadata I?? File for each individual data file
20070727123512437_0007_20010316_093811p.mb57.mif 9.2KB Metadata I?? File for each individual data file
20070727123513438_0007_20010316_183539p.mb57.mif 9.2KB Metadata I?? File for each individual data file
20070727123513439_0007_20010317_080002p.mb57.mif 9.2KB Metadata I?? File for each individual data file
20070727123514440_0007_20010317_210130p.mb57.mif 9.2KB Metadata I?? File for each individual data file
20070727123514441_0007_20010318_035712p.mb57.mif 9.2KB Metadata I?? File for each individual data file
20070727123515442_0007_20010318_202434p.mb57.mif 9.2KB Metadata I?? File for each individual data file
20070727123515443_0007_20010319_011451p.mb57.mif 9.2KB Metadata I?? File for each individual data file
20070727123516444_0007_20010319_115612p.mb57.mif 9.2KB Metadata I?? File for each individual data file
20070727123518445_0007_20010319_184520p.mb57.mif 9.2KB Metadata I?? File for each individual data file
20070727123518446_0007_20010320_135014p.mb57.mif 9.2KB Metadata I?? File for each individual data file
20070727123518447_0007_20010320_200128p.mb57.mif 9.2KB Metadata I?? File for each individual data file
20070727123519448_0007_20010321_012101p.mb57.mif 9.2KB Metadata I?? File for each individual data file
20070727123519449_0007_20010321_084247p.mb57.mif 9.2KB Metadata I?? File for each individual data file
20070727123520450_0007_20010321_165401p.mb57.mif 9.2KB Metadata I?? File for each individual data file
20070727123520451_0007_20010321_233253p.mb57.mif 9.2KB Metadata I?? File for each individual data file
20070727123520452_0007_20010322_080015p.mb57.mif 9.2KB Metadata I?? File for each individual data file
20070727123522453_0007_20010322_163915p.mb57.mif 9.2KB Metadata I?? File for each individual data file
20070727123523454_0007_20010323_000621p.mb57.mif 9.2KB Metadata I?? File for each individual data file
20070727123523455_0007_20010323_112924p.mb57.mif 9.2KB Metadata I?? File for each individual data file
20070727123524456_0007_20010323_180350p.mb57.mif 9.2KB Metadata I?? File for each individual data file
20070727123524457_0007_20010324_083458p.mb57.mif 9.2KB Metadata I?? File for each individual data file
20070727123525458_0007_20010325_131849p.mb57.mif 9.2KB Metadata I?? File for each individual data file
20070727123525459_0008_20010226_072808p.mb57.mif 9.2KB Metadata I?? File for each individual data file
20070727123526460_0008_20010226_223015p.mb57.mif 9.2KB Metadata I?? File for each individual data file
20070727123527461_0008_20010227_225330p.mb57.mif 9.2KB Metadata I?? File for each individual data file
20070727123527462_0008_20010228_151114p.mb57.mif 9.2KB Metadata I?? File for each individual data file
20070727123528463_0008_20010301_082139p.mb57.mif 9.2KB Metadata I?? File for each individual data file
20070727123528464_0008_20010301_222102p.mb57.mif 9.2KB Metadata I?? File for each individual data file
20070727123529465_0008_20010302_180200p.mb57.mif 9.2KB Metadata I?? File for each individual data file
20070727123530466_0008_20010303_213810p.mb57.mif 9.2KB Metadata I?? File for each individual data file
20070727123530467_0008_20010304_045729p.mb57.mif 9.2KB Metadata I?? File for each individual data file
20070727123531468_0008_20010304_211352p.mb57.mif 9.2KB Metadata I?? File for each individual data file
20070727123532469_0008_20010305_205635p.mb57.mif 9.2KB Metadata I?? File for each individual data file
20070727123533470_0008_20010306_221242p.mb57.mif 9.2KB Metadata I?? File for each individual data file
20070727123534471_0008_20010308_002900p.mb57.mif 9.2KB Metadata I?? File for each individual data file
20070727123534472_0008_20010308_173508p.mb57.mif 9.2KB Metadata I?? File for each individual data file
20070727123534473_0008_20010309_204651p.mb57.mif 9.2KB Metadata I?? File for each individual data file
20070727123535474_0008_20010310_172740p.mb57.mif 9.2KB Metadata I?? File for each individual data file
20070727123535475_0008_20010312_024234p.mb57.mif 9.2KB Metadata I?? File for each individual data file
20070727123538476_0008_20010312_210338p.mb57.mif 9.2KB Metadata I?? File for each individual data file
20070727123538477_0008_20010313_125442p.mb57.mif 9.2KB Metadata I?? File for each individual data file
20070727123539478_0008_20010313_212404p.mb57.mif 9.2KB Metadata I?? File for each individual data file
20070727123539479_0008_20010314_063227p.mb57.mif 9.2KB Metadata I?? File for each individual data file
20070727123540480_0008_20010314_144536p.mb57.mif 9.2KB Metadata I?? File for each individual data file
20070727123540481_0008_20010315_010742p.mb57.mif 9.2KB Metadata I?? File for each individual data file
20070727123540482_0008_20010315_131458p.mb57.mif 9.2KB Metadata I?? File for each individual data file
20070727123541483_0008_20010315_231712p.mb57.mif 9.2KB Metadata I?? File for each individual data file
20070727123542484_0008_20010316_103811p.mb57.mif 9.2KB Metadata I?? File for each individual data file
20070727123543485_0008_20010316_193713p.mb57.mif 9.2KB Metadata I?? File for each individual data file
20070727123543486_0008_20010317_092127p.mb57.mif 9.2KB Metadata I?? File for each individual data file
20070727123543487_0008_20010317_210733p.mb57.mif 9.2KB Metadata I?? File for each individual data file
20070727123544488_0008_20010318_045713p.mb57.mif 9.2KB Metadata I?? File for each individual data file
20070727123544489_0008_20010319_121716p.mb57.mif 9.2KB Metadata I?? File for each individual data file
20070727123545490_0008_20010319_194848p.mb57.mif 9.2KB Metadata I?? File for each individual data file
20070727123545491_0008_20010320_023940p.mb57.mif 9.2KB Metadata I?? File for each individual data file
20070727123546492_0008_20010320_135609p.mb57.mif 9.2KB Metadata I?? File for each individual data file
20070727123547493_0008_20010320_200713p.mb57.mif 9.2KB Metadata I?? File for each individual data file
20070727123547494_0008_20010321_020108p.mb57.mif 9.2KB Metadata I?? File for each individual data file
20070727123548495_0008_20010321_094247p.mb57.mif 9.2KB Metadata I?? File for each individual data file
20070727123548496_0008_20010321_170747p.mb57.mif 9.2KB Metadata I?? File for each individual data file
20070727123548497_0008_20010322_003253p.mb57.mif 9.2KB Metadata I?? File for each individual data file
20070727123549498_0008_20010322_090015p.mb57.mif 9.2KB Metadata I?? File for each individual data file
20070727123550499_0008_20010322_173915p.mb57.mif 9.2KB Metadata I?? File for each individual data file
20070727123552500_0008_20010323_010621p.mb57.mif 9.2KB Metadata I?? File for each individual data file
20070727123552501_0008_20010323_114122p.mb57.mif 9.2KB Metadata I?? File for each individual data file
20070727123553502_0008_20010323_190350p.mb57.mif 9.2KB Metadata I?? File for each individual data file
20070727123553503_0008_20010324_093458p.mb57.mif 9.2KB Metadata I?? File for each individual data file
20070727123554504_0008_20010325_141849p.mb57.mif 9.2KB Metadata I?? File for each individual data file
20070727123555505_0009_20010226_074131p.mb57.mif 9.2KB Metadata I?? File for each individual data file
20070727123555506_0009_20010226_233015p.mb57.mif 9.2KB Metadata I?? File for each individual data file
20070727123556507_0009_20010227_235330p.mb57.mif 9.2KB Metadata I?? File for each individual data file
20070727123557508_0009_20010228_161114p.mb57.mif 9.2KB Metadata I?? File for each individual data file
20070727123558509_0009_20010301_092139p.mb57.mif 9.2KB Metadata I?? File for each individual data file
20070727123559510_0009_20010301_232102p.mb57.mif 9.2KB Metadata I?? File for each individual data file
20070727123559511_0009_20010302_190200p.mb57.mif 9.2KB Metadata I?? File for each individual data file
20070727123600512_0009_20010303_214003p.mb57.mif 9.2KB Metadata I?? File for each individual data file
20070727123600513_0009_20010304_055729p.mb57.mif 9.2KB Metadata I?? File for each individual data file
20070727123601514_0009_20010304_075619p.mb57.mif 9.2KB Metadata I?? File for each individual data file
20070727123602515_0009_20010304_221352p.mb57.mif 9.2KB Metadata I?? File for each individual data file
20070727123603516_0009_20010305_215635p.mb57.mif 9.2KB Metadata I?? File for each individual data file
20070727123603517_0009_20010306_231242p.mb57.mif 9.2KB Metadata I?? File for each individual data file
20070727123604518_0009_20010308_012901p.mb57.mif 9.2KB Metadata I?? File for each individual data file
20070727123604519_0009_20010308_173734p.mb57.mif 9.2KB Metadata I?? File for each individual data file
20070727123605520_0009_20010309_214651p.mb57.mif 9.2KB Metadata I?? File for each individual data file
20070727123605521_0009_20010310_182740p.mb57.mif 9.2KB Metadata I?? File for each individual data file
20070727123607522_0009_20010312_034234p.mb57.mif 9.2KB Metadata I?? File for each individual data file
20070727123608523_0009_20010312_220338p.mb57.mif 9.2KB Metadata I?? File for each individual data file
20070727123608524_0009_20010313_222404p.mb57.mif 9.2KB Metadata I?? File for each individual data file
20070727123608525_0009_20010314_073227p.mb57.mif 9.2KB Metadata I?? File for each individual data file
20070727123609526_0009_20010314_145921p.mb57.mif 9.2KB Metadata I?? File for each individual data file
20070727123610527_0009_20010315_011403p.mb57.mif 9.2KB Metadata I?? File for each individual data file
20070727123612528_0009_20010315_141458p.mb57.mif 9.2KB Metadata I?? File for each individual data file
20070727123612529_0009_20010316_001712p.mb57.mif 9.2KB Metadata I?? File for each individual data file
20070727123613530_0009_20010316_113811p.mb57.mif 9.2KB Metadata I?? File for each individual data file
20070727123614531_0009_20010316_194746p.mb57.mif 9.2KB Metadata I?? File for each individual data file
20070727123615532_0009_20010317_092751p.mb57.mif 9.2KB Metadata I?? File for each individual data file
20070727123615533_0009_20010318_055121p.mb57.mif 9.2KB Metadata I?? File for each individual data file
20070727123618534_0009_20010319_122244p.mb57.mif 9.2KB Metadata I?? File for each individual data file
20070727123619535_0009_20010319_201139p.mb57.mif 9.2KB Metadata I?? File for each individual data file
20070727123619536_0009_20010320_024113p.mb57.mif 9.2KB Metadata I?? File for each individual data file
20070727123620537_0009_20010320_203718p.mb57.mif 9.2KB Metadata I?? File for each individual data file
20070727123620538_0009_20010321_100733p.mb57.mif 9.2KB Metadata I?? File for each individual data file
20070727123620539_0009_20010321_180747p.mb57.mif 9.2KB Metadata I?? File for each individual data file
20070727123621540_0009_20010322_012651p.mb57.mif 9.2KB Metadata I?? File for each individual data file
20070727123622541_0009_20010322_100015p.mb57.mif 9.2KB Metadata I?? File for each individual data file
20070727123622542_0009_20010322_183915p.mb57.mif 9.2KB Metadata I?? File for each individual data file
20070727123623543_0009_20010323_020621p.mb57.mif 9.2KB Metadata I?? File for each individual data file
20070727123623544_0009_20010323_200350p.mb57.mif 9.2KB Metadata I?? File for each individual data file
20070727123624545_0009_20010324_103458p.mb57.mif 9.2KB Metadata I?? File for each individual data file
20070727123624546_0009_20010325_151850p.mb57.mif 9.2KB Metadata I?? File for each individual data file
20070727123625547_0010_20010226_082708p.mb57.mif 9.2KB Metadata I?? File for each individual data file
20070727123625548_0010_20010227_003015p.mb57.mif 9.2KB Metadata I?? File for each individual data file
20070727123627549_0010_20010228_005330p.mb57.mif 9.2KB Metadata I?? File for each individual data file
20070727123628550_0010_20010228_171114p.mb57.mif 9.2KB Metadata I?? File for each individual data file
20070727123628551_0010_20010301_102139p.mb57.mif 9.2KB Metadata I?? File for each individual data file
20070727123628552_0010_20010302_002102p.mb57.mif 9.2KB Metadata I?? File for each individual data file
20070727123629553_0010_20010302_200200p.mb57.mif 9.2KB Metadata I?? File for each individual data file
20070727123629554_0010_20010304_065729p.mb57.mif 9.2KB Metadata I?? File for each individual data file
20070727123630555_0010_20010304_231352p.mb57.mif 9.2KB Metadata I?? File for each individual data file
20070727123631556_0010_20010305_225635p.mb57.mif 9.2KB Metadata I?? File for each individual data file
20070727123632557_0010_20010307_001242p.mb57.mif 9.2KB Metadata I?? File for each individual data file
20070727123633558_0010_20010308_022901p.mb57.mif 9.2KB Metadata I?? File for each individual data file
20070727123633559_0010_20010308_183734p.mb57.mif 9.2KB Metadata I?? File for each individual data file
20070727123634560_0010_20010309_223044p.mb57.mif 9.2KB Metadata I?? File for each individual data file
20070727123635561_0010_20010310_192740p.mb57.mif 9.2KB Metadata I?? File for each individual data file
20070727123636562_0010_20010312_044234p.mb57.mif 9.2KB Metadata I?? File for each individual data file
20070727123636563_0010_20010314_155921p.mb57.mif 9.2KB Metadata I?? File for each individual data file
20070727123637564_0010_20010315_021404p.mb57.mif 9.2KB Metadata I?? File for each individual data file
20070727123638565_0010_20010315_151306p.mb57.mif 9.2KB Metadata I?? File for each individual data file
20070727123639566_0010_20010316_011712p.mb57.mif 9.2KB Metadata I?? File for each individual data file
20070727123640567_0010_20010316_222817p.mb57.mif 9.2KB Metadata I?? File for each individual data file
20070727123640568_0010_20010317_101156p.mb57.mif 9.2KB Metadata I?? File for each individual data file
20070727123641569_0010_20010319_131935p.mb57.mif 9.2KB Metadata I?? File for each individual data file
20070727123642570_0010_20010319_201505p.mb57.mif 9.2KB Metadata I?? File for each individual data file
20070727123643571_0010_20010320_030342p.mb57.mif 9.2KB Metadata I?? File for each individual data file
20070727123644572_0010_20010321_105129p.mb57.mif 9.2KB Metadata I?? File for each individual data file
20070727123644573_0010_20010321_182559p.mb57.mif 9.2KB Metadata I?? File for each individual data file
20070727123644574_0010_20010322_022050p.mb57.mif 9.2KB Metadata I?? File for each individual data file
20070727123644575_0010_20010322_103906p.mb57.mif 9.2KB Metadata I?? File for each individual data file
20070727123645576_0010_20010322_184907p.mb57.mif 9.2KB Metadata I?? File for each individual data file
20070727123645577_0010_20010323_030621p.mb57.mif 9.2KB Metadata I?? File for each individual data file
20070727123647578_0010_20010323_210350p.mb57.mif 9.2KB Metadata I?? File for each individual data file
20070727123647579_0010_20010324_113458p.mb57.mif 9.2KB Metadata I?? File for each individual data file
20070727123648580_0010_20010325_161850p.mb57.mif 9.2KB Metadata I?? File for each individual data file
20070727123648581_0011_20010226_092708p.mb57.mif 9.2KB Metadata I?? File for each individual data file
20070727123649582_0011_20010227_013015p.mb57.mif 9.2KB Metadata I?? File for each individual data file
20070727123649583_0011_20010228_015330p.mb57.mif 9.2KB Metadata I?? File for each individual data file
20070727123649584_0011_20010228_181114p.mb57.mif 9.2KB Metadata I?? File for each individual data file
20070727123650585_0011_20010301_103430p.mb57.mif 9.2KB Metadata I?? File for each individual data file
20070727123653586_0011_20010302_012102p.mb57.mif 9.2KB Metadata I?? File for each individual data file
20070727123653587_0011_20010302_210200p.mb57.mif 9.2KB Metadata I?? File for each individual data file
20070727123654588_0011_20010305_001352p.mb57.mif 9.2KB Metadata I?? File for each individual data file
20070727123655589_0011_20010305_235635p.mb57.mif 9.2KB Metadata I?? File for each individual data file
20070727123656590_0011_20010307_011242p.mb57.mif 9.2KB Metadata I?? File for each individual data file
20070727123657591_0011_20010308_032901p.mb57.mif 9.2KB Metadata I?? File for each individual data file
20070727123658592_0011_20010308_193735p.mb57.mif 9.2KB Metadata I?? File for each individual data file
20070727123659593_0011_20010309_233044p.mb57.mif 9.2KB Metadata I?? File for each individual data file
20070727123659594_0011_20010310_200905p.mb57.mif 9.2KB Metadata I?? File for each individual data file
20070727123700595_0011_20010312_044556p.mb57.mif 9.2KB Metadata I?? File for each individual data file
20070727123700596_0011_20010314_165921p.mb57.mif 9.2KB Metadata I?? File for each individual data file
20070727123701597_0011_20010315_031404p.mb57.mif 9.2KB Metadata I?? File for each individual data file
20070727123701598_0011_20010317_112456p.mb57.mif 9.2KB Metadata I?? File for each individual data file
20070727123703599_0011_20010319_214004p.mb57.mif 9.2KB Metadata I?? File for each individual data file
20070727123703600_0011_20010320_030604p.mb57.mif 9.2KB Metadata I?? File for each individual data file
20070727123704601_0011_20010321_182817p.mb57.mif 9.2KB Metadata I?? File for each individual data file
20070727123704602_0011_20010322_112327p.mb57.mif 9.2KB Metadata I?? File for each individual data file
20070727123705603_0011_20010322_185252p.mb57.mif 9.2KB Metadata I?? File for each individual data file
20070727123705604_0011_20010323_040621p.mb57.mif 9.2KB Metadata I?? File for each individual data file
20070727123705605_0011_20010323_220351p.mb57.mif 9.2KB Metadata I?? File for each individual data file
20070727123707606_0011_20010324_123458p.mb57.mif 9.2KB Metadata I?? File for each individual data file
20070727123708607_0011_20010325_164708p.mb57.mif 9.2KB Metadata I?? File for each individual data file
20070727123708608_0012_20010226_100916p.mb57.mif 9.2KB Metadata I?? File for each individual data file
20070727123708609_0012_20010227_023015p.mb57.mif 9.2KB Metadata I?? File for each individual data file
20070727123709610_0012_20010228_025331p.mb57.mif 9.2KB Metadata I?? File for each individual data file
20070727123709611_0012_20010228_191115p.mb57.mif 9.2KB Metadata I?? File for each individual data file
20070727123710612_0012_20010301_113430p.mb57.mif 9.2KB Metadata I?? File for each individual data file
20070727123712613_0012_20010302_022103p.mb57.mif 9.2KB Metadata I?? File for each individual data file
20070727123713614_0012_20010302_220200p.mb57.mif 9.2KB Metadata I?? File for each individual data file
20070727123713615_0012_20010305_011352p.mb57.mif 9.2KB Metadata I?? File for each individual data file
20070727123714616_0012_20010306_005635p.mb57.mif 9.2KB Metadata I?? File for each individual data file
20070727123715617_0012_20010308_042901p.mb57.mif 9.2KB Metadata I?? File for each individual data file
20070727123716618_0012_20010308_203735p.mb57.mif 9.2KB Metadata I?? File for each individual data file
20070727123717619_0012_20010310_003044p.mb57.mif 9.2KB Metadata I?? File for each individual data file
20070727123718620_0012_20010310_210905p.mb57.mif 9.2KB Metadata I?? File for each individual data file
20070727123719621_0012_20010312_054556p.mb57.mif 9.2KB Metadata I?? File for each individual data file
20070727123720622_0012_20010314_175921p.mb57.mif 9.2KB Metadata I?? File for each individual data file
20070727123720623_0012_20010315_034216p.mb57.mif 9.2KB Metadata I?? File for each individual data file
20070727123720624_0012_20010317_131621p.mb57.mif 9.2KB Metadata I?? File for each individual data file
20070727123721625_0012_20010320_031920p.mb57.mif 9.2KB Metadata I?? File for each individual data file
20070727123723626_0012_20010322_190929p.mb57.mif 9.2KB Metadata I?? File for each individual data file
20070727123723627_0012_20010323_050622p.mb57.mif 9.2KB Metadata I?? File for each individual data file
20070727123724628_0012_20010323_230351p.mb57.mif 9.2KB Metadata I?? File for each individual data file
20070727123724629_0012_20010324_133459p.mb57.mif 9.2KB Metadata I?? File for each individual data file
20070727123725630_0012_20010325_165736p.mb57.mif 9.2KB Metadata I?? File for each individual data file
20070727123725631_0013_20010226_111124p.mb57.mif 9.2KB Metadata I?? File for each individual data file
20070727123726632_0013_20010227_033016p.mb57.mif 9.2KB Metadata I?? File for each individual data file
20070727123727633_0013_20010228_035331p.mb57.mif 9.2KB Metadata I?? File for each individual data file
20070727123728634_0013_20010228_201115p.mb57.mif 9.2KB Metadata I?? File for each individual data file
20070727123728635_0013_20010301_123430p.mb57.mif 9.2KB Metadata I?? File for each individual data file
20070727123729636_0013_20010302_032103p.mb57.mif 9.2KB Metadata I?? File for each individual data file
20070727123729637_0013_20010302_230200p.mb57.mif 9.2KB Metadata I?? File for each individual data file
20070727123730638_0013_20010305_021352p.mb57.mif 9.2KB Metadata I?? File for each individual data file
20070727123732639_0013_20010306_015635p.mb57.mif 9.2KB Metadata I?? File for each individual data file
20070727123733640_0013_20010307_021706p.mb57.mif 9.2KB Metadata I?? File for each individual data file
20070727123733641_0013_20010308_050734p.mb57.mif 9.2KB Metadata I?? File for each individual data file
20070727123734642_0013_20010308_213735p.mb57.mif 9.2KB Metadata I?? File for each individual data file
20070727123734643_0013_20010310_020430p.mb57.mif 9.2KB Metadata I?? File for each individual data file
20070727123735644_0013_20010310_220905p.mb57.mif 9.2KB Metadata I?? File for each individual data file
20070727123736645_0013_20010312_064557p.mb57.mif 9.2KB Metadata I?? File for each individual data file
20070727123737646_0013_20010314_182341p.mb57.mif 9.2KB Metadata I?? File for each individual data file
20070727123738647_0013_20010317_132248p.mb57.mif 9.2KB Metadata I?? File for each individual data file
20070727123739648_0013_20010320_051103p.mb57.mif 9.2KB Metadata I?? File for each individual data file
20070727123739649_0013_20010323_060622p.mb57.mif 9.2KB Metadata I?? File for each individual data file
20070727123740650_0013_20010323_231651p.mb57.mif 9.2KB Metadata I?? File for each individual data file
20070727123740651_0013_20010324_143459p.mb57.mif 9.2KB Metadata I?? File for each individual data file
20070727123741652_0014_20010226_125822p.mb57.mif 9.2KB Metadata I?? File for each individual data file
20070727123742653_0014_20010227_035837p.mb57.mif 9.2KB Metadata I?? File for each individual data file
20070727123743654_0014_20010228_045331p.mb57.mif 9.2KB Metadata I?? File for each individual data file
20070727123743655_0014_20010228_211115p.mb57.mif 9.2KB Metadata I?? File for each individual data file
20070727123744656_0014_20010301_133430p.mb57.mif 9.2KB Metadata I?? File for each individual data file
20070727123744657_0014_20010302_042103p.mb57.mif 9.2KB Metadata I?? File for each individual data file
20070727123745658_0014_20010303_000200p.mb57.mif 9.2KB Metadata I?? File for each individual data file
20070727123745659_0014_20010305_031352p.mb57.mif 9.2KB Metadata I?? File for each individual data file
20070727123746660_0014_20010306_025635p.mb57.mif 9.2KB Metadata I?? File for each individual data file
20070727123747661_0014_20010307_031706p.mb57.mif 9.2KB Metadata I?? File for each individual data file
20070727123748662_0014_20010308_060734p.mb57.mif 9.2KB Metadata I?? File for each individual data file
20070727123748663_0014_20010308_223735p.mb57.mif 9.2KB Metadata I?? File for each individual data file
20070727123749664_0014_20010310_030430p.mb57.mif 9.2KB Metadata I?? File for each individual data file
20070727123749665_0014_20010310_230905p.mb57.mif 9.2KB Metadata I?? File for each individual data file
20070727123750666_0014_20010312_074557p.mb57.mif 9.2KB Metadata I?? File for each individual data file
20070727123751667_0014_20010317_140701p.mb57.mif 9.2KB Metadata I?? File for each individual data file
20070727123752668_0014_20010320_055437p.mb57.mif 9.2KB Metadata I?? File for each individual data file
20070727123753669_0014_20010324_001651p.mb57.mif 9.2KB Metadata I?? File for each individual data file
20070727123753670_0014_20010324_153459p.mb57.mif 9.2KB Metadata I?? File for each individual data file
20070727123753671_0015_20010227_041538p.mb57.mif 9.2KB Metadata I?? File for each individual data file
20070727123754672_0015_20010228_055331p.mb57.mif 9.2KB Metadata I?? File for each individual data file
20070727123755673_0015_20010228_214740p.mb57.mif 9.2KB Metadata I?? File for each individual data file
20070727123755674_0015_20010301_143430p.mb57.mif 9.2KB Metadata I?? File for each individual data file
20070727123756675_0015_20010302_052103p.mb57.mif 9.2KB Metadata I?? File for each individual data file
20070727123757676_0015_20010303_010200p.mb57.mif 9.2KB Metadata I?? File for each individual data file
20070727123758677_0015_20010305_041352p.mb57.mif 9.2KB Metadata I?? File for each individual data file
20070727123759678_0015_20010306_035635p.mb57.mif 9.2KB Metadata I?? File for each individual data file
20070727123759679_0015_20010307_041706p.mb57.mif 9.2KB Metadata I?? File for each individual data file
20070727123800680_0015_20010308_070734p.mb57.mif 9.2KB Metadata I?? File for each individual data file
20070727123800681_0015_20010308_233735p.mb57.mif 9.2KB Metadata I?? File for each individual data file
20070727123801682_0015_20010310_040430p.mb57.mif 9.2KB Metadata I?? File for each individual data file
20070727123803683_0015_20010311_000905p.mb57.mif 9.2KB Metadata I?? File for each individual data file
20070727123803684_0015_20010312_084557p.mb57.mif 9.2KB Metadata I?? File for each individual data file
20070727123804685_0015_20010324_011651p.mb57.mif 9.2KB Metadata I?? File for each individual data file
20070727123804686_0015_20010324_155418p.mb57.mif 9.2KB Metadata I?? File for each individual data file
20070727123805687_0016_20010227_041937p.mb57.mif 9.2KB Metadata I?? File for each individual data file
20070727123805688_0016_20010228_063623p.mb57.mif 9.2KB Metadata I?? File for each individual data file
20070727123805689_0016_20010228_215229p.mb57.mif 9.2KB Metadata I?? File for each individual data file
20070727123807690_0016_20010302_062103p.mb57.mif 9.2KB Metadata I?? File for each individual data file
20070727123808691_0016_20010303_020200p.mb57.mif 9.2KB Metadata I?? File for each individual data file
20070727123808692_0016_20010305_051352p.mb57.mif 9.2KB Metadata I?? File for each individual data file
20070727123809693_0016_20010306_043341p.mb57.mif 9.2KB Metadata I?? File for each individual data file
20070727123809694_0016_20010307_051706p.mb57.mif 9.2KB Metadata I?? File for each individual data file
20070727123810695_0016_20010308_080734p.mb57.mif 9.2KB Metadata I?? File for each individual data file
20070727123811696_0016_20010309_003735p.mb57.mif 9.2KB Metadata I?? File for each individual data file
20070727123812697_0016_20010310_050430p.mb57.mif 9.2KB Metadata I?? File for each individual data file
20070727123813698_0016_20010311_010905p.mb57.mif 9.2KB Metadata I?? File for each individual data file
20070727123813699_0016_20010312_094557p.mb57.mif 9.2KB Metadata I?? File for each individual data file
20070727123814700_0016_20010324_021651p.mb57.mif 9.2KB Metadata I?? File for each individual data file
20070727123814701_0016_20010324_165418p.mb57.mif 9.2KB Metadata I?? File for each individual data file
20070727123815702_0017_20010227_051010p.mb57.mif 9.2KB Metadata I?? File for each individual data file
20070727123815703_0017_20010228_064613p.mb57.mif 9.2KB Metadata I?? File for each individual data file
20070727123816704_0017_20010228_225229p.mb57.mif 9.2KB Metadata I?? File for each individual data file
20070727123816705_0017_20010302_072103p.mb57.mif 9.2KB Metadata I?? File for each individual data file
20070727123817706_0017_20010305_061352p.mb57.mif 9.2KB Metadata I?? File for each individual data file
20070727123818707_0017_20010306_053341p.mb57.mif 9.2KB Metadata I?? File for each individual data file
20070727123819708_0017_20010307_061706p.mb57.mif 9.2KB Metadata I?? File for each individual data file
20070727123820709_0017_20010308_090735p.mb57.mif 9.2KB Metadata I?? File for each individual data file
20070727123820710_0017_20010309_013735p.mb57.mif 9.2KB Metadata I?? File for each individual data file
20070727123820711_0017_20010310_060431p.mb57.mif 9.2KB Metadata I?? File for each individual data file
20070727123821712_0017_20010311_020129p.mb57.mif 9.2KB Metadata I?? File for each individual data file
20070727123822713_0017_20010312_104557p.mb57.mif 9.2KB Metadata I?? File for each individual data file
20070727123823714_0017_20010324_022619p.mb57.mif 9.2KB Metadata I?? File for each individual data file
20070727123824715_0017_20010324_174357p.mb57.mif 9.2KB Metadata I?? File for each individual data file
20070727123824716_0018_20010227_052336p.mb57.mif 9.2KB Metadata I?? File for each individual data file
20070727123824717_0018_20010228_092524p.mb57.mif 9.2KB Metadata I?? File for each individual data file
20070727123824718_0018_20010228_235229p.mb57.mif 9.2KB Metadata I?? File for each individual data file
20070727123825719_0018_20010302_075314p.mb57.mif 9.2KB Metadata I?? File for each individual data file
20070727123825720_0018_20010305_071353p.mb57.mif 9.2KB Metadata I?? File for each individual data file
20070727123825721_0018_20010306_063342p.mb57.mif 9.2KB Metadata I?? File for each individual data file
20070727123826722_0018_20010307_071706p.mb57.mif 9.2KB Metadata I?? File for each individual data file
20070727123827723_0018_20010309_023735p.mb57.mif 9.2KB Metadata I?? File for each individual data file
20070727123828724_0018_20010310_064641p.mb57.mif 9.2KB Metadata I?? File for each individual data file
20070727123828725_0018_20010311_030107p.mb57.mif 9.2KB Metadata I?? File for each individual data file
20070727123829726_0018_20010312_114557p.mb57.mif 9.2KB Metadata I?? File for each individual data file
20070727123829727_0018_20010324_192027p.mb57.mif 9.2KB Metadata I?? File for each individual data file
20070727123830728_0019_20010227_061739p.mb57.mif 9.2KB Metadata I?? File for each individual data file
20070727123831729_0019_20010302_075429p.mb57.mif 9.2KB Metadata I?? File for each individual data file
20070727123831730_0019_20010306_073342p.mb57.mif 9.2KB Metadata I?? File for each individual data file
20070727123832731_0019_20010307_081706p.mb57.mif 9.2KB Metadata I?? File for each individual data file
20070727123833732_0019_20010309_033735p.mb57.mif 9.2KB Metadata I?? File for each individual data file
20070727123833733_0019_20010310_074641p.mb57.mif 9.2KB Metadata I?? File for each individual data file
20070727123834734_0019_20010311_040126p.mb57.mif 9.2KB Metadata I?? File for each individual data file
20070727123835735_0019_20010312_124557p.mb57.mif 9.2KB Metadata I?? File for each individual data file
20070727123835736_0019_20010324_193928p.mb57.mif 9.2KB Metadata I?? File for each individual data file
20070727123835737_0020_20010227_063220p.mb57.mif 9.2KB Metadata I?? File for each individual data file
20070727123836738_0020_20010302_084247p.mb57.mif 9.2KB Metadata I?? File for each individual data file
20070727123837739_0020_20010305_072441p.mb57.mif 9.2KB Metadata I?? File for each individual data file
20070727123838740_0020_20010306_083342p.mb57.mif 9.2KB Metadata I?? File for each individual data file
20070727123839741_0020_20010307_091706p.mb57.mif 9.2KB Metadata I?? File for each individual data file
20070727123840742_0020_20010309_043735p.mb57.mif 9.2KB Metadata I?? File for each individual data file
20070727123840743_0020_20010310_084641p.mb57.mif 9.2KB Metadata I?? File for each individual data file
20070727123841744_0020_20010311_050121p.mb57.mif 9.2KB Metadata I?? File for each individual data file
20070727123842745_0020_20010312_134557p.mb57.mif 9.2KB Metadata I?? File for each individual data file
20070727123843746_0021_20010227_071849p.mb57.mif 9.2KB Metadata I?? File for each individual data file
20070727123843747_0021_20010302_094247p.mb57.mif 9.2KB Metadata I?? File for each individual data file
20070727123844748_0021_20010305_082441p.mb57.mif 9.2KB Metadata I?? File for each individual data file
20070727123844749_0021_20010306_093342p.mb57.mif 9.2KB Metadata I?? File for each individual data file
20070727123845750_0021_20010307_101706p.mb57.mif 9.2KB Metadata I?? File for each individual data file
20070727123845751_0021_20010309_053735p.mb57.mif 9.2KB Metadata I?? File for each individual data file
20070727123845752_0021_20010311_060222p.mb57.mif 9.2KB Metadata I?? File for each individual data file
20070727123846753_0022_20010227_073412p.mb57.mif 9.2KB Metadata I?? File for each individual data file
20070727123848754_0022_20010305_092441p.mb57.mif 9.2KB Metadata I?? File for each individual data file
20070727123848755_0022_20010306_103342p.mb57.mif 9.2KB Metadata I?? File for each individual data file
20070727123848756_0022_20010307_111706p.mb57.mif 9.2KB Metadata I?? File for each individual data file
20070727123849757_0022_20010309_063735p.mb57.mif 9.2KB Metadata I?? File for each individual data file
20070727123849758_0022_20010311_060725p.mb57.mif 9.2KB Metadata I?? File for each individual data file
20070727123850759_0023_20010227_082444p.mb57.mif 9.2KB Metadata I?? File for each individual data file
20070727123851760_0023_20010305_102441p.mb57.mif 9.2KB Metadata I?? File for each individual data file
20070727123853761_0023_20010306_113342p.mb57.mif 9.2KB Metadata I?? File for each individual data file
20070727123853762_0023_20010307_121706p.mb57.mif 9.2KB Metadata I?? File for each individual data file
20070727123854763_0023_20010309_073735p.mb57.mif 9.2KB Metadata I?? File for each individual data file
20070727123855764_0023_20010311_070725p.mb57.mif 9.2KB Metadata I?? File for each individual data file
20070727123855765_0024_20010227_090222p.mb57.mif 9.2KB Metadata I?? File for each individual data file
20070727123856766_0024_20010305_112442p.mb57.mif 9.2KB Metadata I?? File for each individual data file
20070727123857767_0024_20010307_131706p.mb57.mif 9.2KB Metadata I?? File for each individual data file
20070727123858768_0024_20010309_083735p.mb57.mif 9.2KB Metadata I?? File for each individual data file
20070727123859769_0024_20010311_080725p.mb57.mif 9.2KB Metadata I?? File for each individual data file
20070727123900770_0025_20010227_100254p.mb57.mif 9.2KB Metadata I?? File for each individual data file
20070727123901771_0025_20010305_122442p.mb57.mif 9.2KB Metadata I?? File for each individual data file
20070727123903772_0025_20010307_141706p.mb57.mif 9.2KB Metadata I?? File for each individual data file
20070727123904773_0025_20010309_093736p.mb57.mif 9.2KB Metadata I?? File for each individual data file
20070727123904774_0025_20010311_090725p.mb57.mif 9.2KB Metadata I?? File for each individual data file
20070727123905775_0026_20010227_110254p.mb57.mif 9.2KB Metadata I?? File for each individual data file
20070727123906776_0026_20010305_132442p.mb57.mif 9.2KB Metadata I?? File for each individual data file
20070727123907777_0026_20010307_151706p.mb57.mif 9.2KB Metadata I?? File for each individual data file
20070727123908778_0026_20010309_103736p.mb57.mif 9.2KB Metadata I?? File for each individual data file
20070727123908779_0026_20010311_100725p.mb57.mif 9.2KB Metadata I?? File for each individual data file
20070727123908780_0027_20010227_120255p.mb57.mif 9.2KB Metadata I?? File for each individual data file
20070727123909781_0027_20010309_113736p.mb57.mif 9.2KB Metadata I?? File for each individual data file
20070727123909782_0027_20010311_110725p.mb57.mif 9.2KB Metadata I?? File for each individual data file
20070727123910783_0028_20010227_130255p.mb57.mif 9.2KB Metadata I?? File for each individual data file
20070727123910784_0028_20010311_120725p.mb57.mif 9.2KB Metadata I?? File for each individual data file
20070727123911785_0029_20010227_140255p.mb57.mif 9.2KB Metadata I?? File for each individual data file
20070727123913786_0029_20010311_130725p.mb57.mif 9.2KB Metadata I?? File for each individual data file
20070727123913787_0030_20010227_150255p.mb57.mif 9.2KB Metadata I?? File for each individual data file
20070727123913788_0030_20010311_140725p.mb57.mif 9.2KB Metadata I?? File for each individual data file
20070727123914789_0031_20010227_160255p.mb57.mif 9.2KB Metadata I?? File for each individual data file
20070727123915790_0031_20010311_150725p.mb57.mif 9.2KB Metadata I?? File for each individual data file
20070727123915791_0032_20010311_153901p.mb57.mif 9.2KB Metadata I?? File for each individual data file
20070727123916792_0033_20010311_163901p.mb57.mif 9.2KB Metadata I?? File for each individual data file
20070727123917793_0034_20010311_173901p.mb57.mif 9.2KB Metadata I?? File for each individual data file
20070727123918794_0035_20010311_183901p.mb57.mif 9.2KB Metadata I?? File for each individual data file
SEAW03RR_cruise_report.pdf 0.52MB PDF metadata file